M I D A S
Marine Information and Data Acquisition System
Tripno 2321 of the Zeeleeuw from 2012-05-31 04:54:38 to 2012-05-31 15:54:25
Back to CruiseResearch ActivitiesStationsMapUnderway DataData graphs

EquipmentUnitsComment
TimeDGPSUTC
LatitudeDGPSDM.mWGS84
LongitudeDGPSDM.mWGS84
TemperatureSBE03/SBE38deg celciusITS90
ConductivitySBE21S/mITS90
SalinitySBE21 Practical Salinity Units
ChlorophylAChelsea fluorimeterg/lCalibrated in Aceton
Missing or incorrect values are displayed as -999
Sea surface data collected by the RV Zeeleeuw from 2012-05-31 04:37:31 to 2012-05-31 16:00:00
                                                                                    Next 1000 lines
Time Latitude Longitude Temperature Conductivity Salinity ChlorophylA
2012-05-31 04:37:41 51°13.635 2°56.013 22.2014 0.073759 0.350311 -2.458615
2012-05-31 04:37:46 51°13.635 2°56.01 22.2172 0.073759 0.350311 -2.458615
2012-05-31 04:37:51 51°13.635 2°56.007 22.2355 0.073759 0.350301 -2.458615
2012-05-31 04:37:55 51°13.636 2°56.003 22.267 0.073759 0.350301 -2.458615
2012-05-31 04:38:00 51°13.637 2°55.998 22.2731 0.073759 0.350301 -2.458615
2012-05-31 04:38:06 51°13.638 2°55.991 22.2786 0.073759 0.350296 -2.458615
2012-05-31 04:38:11 51°13.64 2°55.984 22.2502 0.073759 0.350296 -2.458615
2012-05-31 04:38:15 51°13.641 2°55.978 22.3033 0.073759 0.350296 -2.458615
2012-05-31 04:38:21 51°13.643 2°55.969 22.3299 0.073759 0.350296 -2.458615
2012-05-31 04:38:26 51°13.644 2°55.961 22.3044 0.073759 0.350296 -2.458615
2012-05-31 04:38:31 51°13.646 2°55.953 22.2269 0.073759 0.350296 -2.458615
2012-05-31 04:38:35 51°13.647 2°55.947 22.2924 0.073759 0.350301 -2.458615
2012-05-31 04:38:41 51°13.649 2°55.938 22.3071 0.073759 0.350306 -2.458615
2012-05-31 04:38:46 51°13.65 2°55.93 22.303 0.073759 0.350311 -2.458615
2012-05-31 04:38:51 51°13.652 2°55.922 22.3075 0.073759 0.350311 -2.458615
2012-05-31 04:38:55 51°13.653 2°55.915 22.3101 0.073759 0.350311 -2.458615
2012-05-31 04:39:01 51°13.655 2°55.906 22.2968 0.073759 0.350311 -2.458615
2012-05-31 04:39:06 51°13.656 2°55.898 22.3206 0.073759 0.350311 -2.458615
2012-05-31 04:39:11 51°13.658 2°55.89 22.3155 0.073759 0.350311 -2.458615
2012-05-31 04:39:15 51°13.659 2°55.884 22.3213 0.073759 0.350316 -2.458615
2012-05-31 04:39:21 51°13.662 2°55.875 22.2917 0.073759 0.350316 -2.458615
2012-05-31 04:39:26 51°13.664 2°55.867 22.3084 0.073759 0.350316 -2.458615
2012-05-31 04:39:31 51°13.666 2°55.86 22.299 0.073759 0.350321 -2.458615
2012-05-31 04:39:35 51°13.668 2°55.853 22.2942 0.073759 0.350321 -2.458615
2012-05-31 04:39:41 51°13.672 2°55.843 22.2824 0.073759 0.350321 -2.458615
2012-05-31 04:39:46 51°13.674 2°55.834 22.324 0.073759 0.350321 -2.458615
2012-05-31 04:39:51 51°13.677 2°55.826 22.286 0.073759 0.350321 -2.458615
2012-05-31 04:39:55 51°13.68 2°55.819 22.2737 0.073759 0.350321 -2.458615
2012-05-31 04:40:01 51°13.684 2°55.809 22.3033 0.073759 0.350327 -2.458615
2012-05-31 04:40:06 51°13.688 2°55.801 22.2915 0.073759 0.350327 -2.458615
2012-05-31 04:40:11 51°13.692 2°55.793 22.2853 0.073759 0.350327 -2.458615
2012-05-31 04:40:15 51°13.695 2°55.786 22.2847 0.073759 0.350332 -2.458615
2012-05-31 04:40:21 51°13.7 2°55.776 22.2968 0.073759 0.350332 -2.458615
2012-05-31 04:40:26 51°13.705 2°55.768 22.3077 0.073759 0.350332 -2.458615
2012-05-31 04:40:31 51°13.71 2°55.76 22.3153 0.073759 0.350337 -2.458615
2012-05-31 04:40:35 51°13.713 2°55.754 22.3219 0.073759 0.350337 -2.458615
2012-05-31 04:40:41 51°13.719 2°55.744 22.3081 0.073759 0.350342 -2.458615
2012-05-31 04:40:46 51°13.724 2°55.737 22.3101 0.073759 0.350342 -2.458615
2012-05-31 04:40:51 51°13.73 2°55.729 22.3111 0.073759 0.350342 -2.458615
2012-05-31 04:40:55 51°13.734 2°55.723 22.3156 0.073759 0.350342 -2.458615
2012-05-31 04:41:01 51°13.74 2°55.715 22.3224 0.073759 0.350342 -2.458615
2012-05-31 04:41:06 51°13.745 2°55.708 22.3015 0.073759 0.350342 -2.458615
2012-05-31 04:41:11 51°13.751 2°55.701 22.3037 0.073759 0.350337 -2.458615
2012-05-31 04:41:15 51°13.755 2°55.695 22.3114 0.073759 0.350342 -2.458615
2012-05-31 04:41:21 51°13.762 2°55.686 22.3148 0.073759 0.350342 -2.458615
2012-05-31 04:41:26 51°13.768 2°55.68 22.2986 0.073759 0.350342 -2.458615
2012-05-31 04:41:31 51°13.774 2°55.673 22.2858 0.073759 0.350342 -2.458615
2012-05-31 04:41:35 51°13.778 2°55.668 22.3243 0.073759 0.350342 -2.458615
2012-05-31 04:41:41 51°13.786 2°55.661 22.3271 0.073759 0.350342 -2.458615
2012-05-31 04:41:46 51°13.792 2°55.655 22.318 0.073759 0.350342 -2.458615
2012-05-31 04:41:51 51°13.798 2°55.649 22.331 0.073759 0.350342 -2.458615
2012-05-31 04:41:56 51°13.803 2°55.644 22.3421 0.073759 0.350342 -2.458615
2012-05-31 04:42:01 51°13.809 2°55.638 22.3172 0.073759 0.350342 -2.458615
2012-05-31 04:42:06 51°13.815 2°55.633 22.3474 0.073759 0.350342 -2.458615
2012-05-31 04:42:11 51°13.821 2°55.629 22.3231 0.073759 0.350347 -2.458615
2012-05-31 04:42:15 51°13.826 2°55.625 22.3526 0.073759 0.350347 -2.458615
2012-05-31 04:42:21 51°13.833 2°55.62 22.3132 0.073759 0.350347 -2.458615
2012-05-31 04:42:26 51°13.839 2°55.616 22.3311 0.073759 0.350347 -2.458615
2012-05-31 04:42:31 51°13.845 2°55.612 22.3361 0.073759 0.350352 -2.458615
2012-05-31 04:42:35 51°13.849 2°55.61 22.3298 0.073759 0.350357 -2.458615
2012-05-31 04:42:41 51°13.856 2°55.606 22.3199 0.073759 0.350357 -2.458615
2012-05-31 04:42:45 51°13.86 2°55.604 22.2938 0.073759 0.350357 -2.458615
2012-05-31 04:42:51 51°13.867 2°55.601 22.3174 0.073759 0.350357 -2.458615
2012-05-31 04:42:55 51°13.872 2°55.6 22.3289 0.073759 0.350357 -2.458615
2012-05-31 04:43:01 51°13.878 2°55.599 22.3119 0.073759 0.350357 -2.458615
2012-05-31 04:43:06 51°13.884 2°55.598 22.3234 0.073759 0.350357 -2.458615
2012-05-31 04:43:11 51°13.89 2°55.598 22.3255 0.073759 0.350362 -2.458615
2012-05-31 04:43:15 51°13.894 2°55.598 22.3249 0.073759 0.350367 -2.458615
2012-05-31 04:43:21 51°13.901 2°55.597 22.3218 0.073759 0.350367 -2.458615
2012-05-31 04:43:26 51°13.907 2°55.597 22.3278 0.073759 0.350367 -2.458615
2012-05-31 04:43:31 51°13.912 2°55.598 22.3321 0.073759 0.350372 -2.458615
2012-05-31 04:43:36 51°13.917 2°55.6 22.3378 0.073759 0.350372 -2.458615
2012-05-31 04:43:41 51°13.922 2°55.602 22.325 0.073759 0.350378 -2.458615
2012-05-31 04:43:46 51°13.926 2°55.603 22.3231 0.073759 0.350378 -2.458615
2012-05-31 04:43:51 51°13.931 2°55.605 22.3459 0.073759 0.350378 -2.458615
2012-05-31 04:43:56 51°13.936 2°55.607 22.3348 0.073759 0.350378 -2.458615
2012-05-31 04:44:01 51°13.94 2°55.61 22.3324 0.073759 0.350378 -2.458615
2012-05-31 04:44:06 51°13.945 2°55.612 22.3187 0.073759 0.350378 -2.458615
2012-05-31 04:44:11 51°13.949 2°55.614 22.3297 0.073759 0.350383 -2.458615
2012-05-31 04:44:15 51°13.952 2°55.616 22.334 0.073759 0.350383 -2.458615
2012-05-31 04:44:21 51°13.956 2°55.62 22.321 0.073759 0.350383 -2.458615
2012-05-31 04:44:26 51°13.96 2°55.623 22.3222 0.073759 0.350383 -2.458615
2012-05-31 04:44:31 51°13.964 2°55.626 22.3206 0.073759 0.350388 -2.458615
2012-05-31 04:44:35 51°13.966 2°55.628 22.3255 0.073759 0.350388 -2.458615
2012-05-31 04:44:40 51°13.969 2°55.631 22.341 0.073759 0.350393 -2.458615
2012-05-31 04:44:46 51°13.973 2°55.635 22.3605 0.073759 0.350393 -2.458615
2012-05-31 04:44:51 51°13.976 2°55.637 22.3495 0.073759 0.350393 -2.458615
2012-05-31 04:44:55 51°13.977 2°55.639 22.3491 0.073759 0.350393 -2.458615
2012-05-31 04:45:01 51°13.979 2°55.642 22.3475 0.073759 0.350398 -2.458615
2012-05-31 04:45:06 51°13.98 2°55.643 22.3622 0.073759 0.350398 -2.458615
2012-05-31 04:45:11 51°13.981 2°55.643 22.3338 0.073759 0.350393 -2.458615
2012-05-31 04:45:15 51°13.981 2°55.643 22.329 0.073759 0.350393 -2.458615
2012-05-31 04:45:21 51°13.981 2°55.642 22.3346 0.073759 0.350393 -2.458615
2012-05-31 04:45:26 51°13.981 2°55.64 22.3364 0.073759 0.350393 -2.458615
2012-05-31 04:45:31 51°13.981 2°55.638 22.3331 0.073759 0.350393 -2.458615
2012-05-31 04:45:35 51°13.981 2°55.636 22.2837 0.073759 0.350393 -2.458615
2012-05-31 04:45:41 51°13.981 2°55.632 22.1916 0.073759 0.350398 -2.458615
2012-05-31 04:45:46 51°13.982 2°55.627 22.1172 0.073759 0.350403 -2.458615
2012-05-31 04:45:51 51°13.982 2°55.623 22.1291 0.073759 0.350408 -2.458615
2012-05-31 04:45:55 51°13.983 2°55.619 22.1212 0.073759 0.350408 -2.458615
2012-05-31 04:46:01 51°13.985 2°55.612 22.0963 0.073759 0.350413 -2.458615
2012-05-31 04:46:06 51°13.986 2°55.606 22.2651 0.073759 0.350418 -2.458615
2012-05-31 04:46:11 51°13.989 2°55.6 22.2558 0.073759 0.350428 -2.458615
2012-05-31 04:46:15 51°13.991 2°55.595 22.2734 0.073759 0.350428 -2.458615
2012-05-31 04:46:21 51°13.995 2°55.587 22.3127 0.073759 0.350428 -2.458615
2012-05-31 04:46:26 51°13.999 2°55.581 22.3064 0.073759 0.350428 -2.458615
2012-05-31 04:46:31 51°14.004 2°55.573 22.2899 0.073759 0.350428 -2.458615
2012-05-31 04:46:35 51°14.008 2°55.568 22.2906 0.073759 0.350434 -2.458615
2012-05-31 04:46:41 51°14.015 2°55.56 22.3249 0.073759 0.350428 -2.458615
2012-05-31 04:46:46 51°14.022 2°55.552 22.3247 0.073759 0.350428 -2.458615
2012-05-31 04:46:51 51°14.028 2°55.544 22.3195 0.073759 0.350434 -2.458615
2012-05-31 04:46:55 51°14.033 2°55.537 22.3094 0.073759 0.350434 -2.458615
2012-05-31 04:47:01 51°14.042 2°55.527 22.2953 0.073759 0.350434 -2.458615
2012-05-31 04:47:06 51°14.049 2°55.519 22.2949 0.073759 0.350434 -2.458615
2012-05-31 04:47:11 51°14.057 2°55.511 22.2966 0.073759 0.350434 -2.458615
2012-05-31 04:47:15 51°14.063 2°55.504 22.2927 0.073759 0.350434 -2.458615
2012-05-31 04:47:21 51°14.073 2°55.494 22.2838 0.073759 0.350434 -2.458615
2012-05-31 04:47:26 51°14.081 2°55.486 22.2903 0.073759 0.350434 -2.458615
2012-05-31 04:47:31 51°14.089 2°55.477 22.2897 0.073759 0.350439 -2.458615
2012-05-31 04:47:35 51°14.096 2°55.47 22.2671 0.073759 0.350439 -2.458615
2012-05-31 04:47:41 51°14.106 2°55.46 22.2271 0.073759 0.350439 -2.458615
2012-05-31 04:47:46 51°14.114 2°55.451 22.2209 0.073759 0.350439 -2.458615
2012-05-31 04:47:51 51°14.123 2°55.443 22.2575 0.073759 0.350444 -2.458615
2012-05-31 04:47:55 51°14.13 2°55.435 22.2702 0.073759 0.350444 -2.458615
2012-05-31 04:48:01 51°14.141 2°55.424 22.3132 0.073759 0.350439 -2.458615
2012-05-31 04:48:06 51°14.15 2°55.415 22.2919 0.073759 0.350444 -2.458615
2012-05-31 04:48:11 51°14.16 2°55.406 22.3174 0.073759 0.350449 -2.458615
2012-05-31 04:48:16 51°14.169 2°55.396 22.2784 0.073759 0.350449 -2.458615
2012-05-31 04:48:21 51°14.179 2°55.386 22.24 0.073759 0.350449 -2.458615
2012-05-31 04:48:26 51°14.189 2°55.377 22.2486 0.073759 0.350449 -2.458615
2012-05-31 04:48:31 51°14.199 2°55.368 22.2551 0.073759 0.350449 -2.458615
2012-05-31 04:48:35 51°14.207 2°55.36 22.2557 0.073759 0.350449 -2.458615
2012-05-31 04:48:41 51°14.219 2°55.349 22.2524 0.073759 0.350449 -2.458615
2012-05-31 04:48:46 51°14.23 2°55.339 22.2507 0.073759 0.350454 -2.458615
2012-05-31 04:48:51 51°14.241 2°55.33 22.2675 0.073759 0.350459 -2.458615
2012-05-31 04:48:55 51°14.249 2°55.322 22.2603 0.073759 0.350459 -2.458615
2012-05-31 04:49:01 51°14.262 2°55.311 22.2772 0.073759 0.350464 -2.458615
2012-05-31 04:49:06 51°14.272 2°55.301 22.2952 0.073759 0.350469 -2.458615
2012-05-31 04:49:11 51°14.282 2°55.29 22.2839 0.073759 0.350469 -2.458615
2012-05-31 04:49:15 51°14.291 2°55.282 22.2597 0.073759 0.350474 -2.458615
2012-05-31 04:49:21 51°14.303 2°55.27 22.2575 0.073759 0.350474 -2.458615
2012-05-31 04:49:26 51°14.314 2°55.26 22.2597 0.073759 0.350474 -2.458615
2012-05-31 04:49:31 51°14.325 2°55.25 22.2581 0.073759 0.350469 -2.458615
2012-05-31 04:49:35 51°14.334 2°55.242 22.223 0.073759 0.350474 -2.458615
2012-05-31 04:49:41 51°14.347 2°55.23 22.2481 0.073759 0.350474 -2.458615
2012-05-31 04:49:46 51°14.358 2°55.219 22.2511 0.073759 0.350474 -2.458615
2012-05-31 04:49:51 51°14.369 2°55.209 22.2942 0.073759 0.350479 -2.458615
2012-05-31 04:49:55 51°14.378 2°55.201 22.281 0.073759 0.350479 -2.458615
2012-05-31 04:50:01 51°14.391 2°55.188 22.1972 0.073759 0.350484 -2.458615
2012-05-31 04:50:06 51°14.403 2°55.178 22.1995 0.073759 0.350479 -2.458615
2012-05-31 04:50:11 51°14.415 2°55.168 22.2711 0.073759 0.35049 -2.458615
2012-05-31 04:50:15 51°14.425 2°55.16 22.2298 0.073759 0.350495 -2.458615
2012-05-31 04:50:21 51°14.439 2°55.147 22.2878 0.073759 0.350505 -2.458615
2012-05-31 04:50:26 51°14.451 2°55.136 22.1554 0.073759 0.350505 -2.458615
2012-05-31 04:50:31 51°14.463 2°55.126 22.1149 0.073759 0.35051 -2.458615
2012-05-31 04:50:36 51°14.476 2°55.115 22.1968 0.073759 0.350515 -2.458615
2012-05-31 04:50:40 51°14.486 2°55.107 22.2741 0.073759 0.35052 -2.458615
2012-05-31 04:50:46 51°14.501 2°55.094 22.0912 0.073759 0.350525 -2.458615
2012-05-31 04:50:51 51°14.513 2°55.082 22.2274 0.073759 0.350515 -2.458615
2012-05-31 04:50:55 51°14.522 2°55.073 22.2362 0.073759 0.350515 -2.458615
2012-05-31 04:51:00 51°14.534 2°55.061 22.0864 0.073759 0.35051 -2.458615
2012-05-31 04:51:05 51°14.545 2°55.047 22.1725 0.073759 0.3505 -2.458615
2012-05-31 04:51:10 51°14.556 2°55.032 22.0515 0.073759 0.350449 -2.458615
2012-05-31 04:51:15 51°14.568 2°55.018 22.0267 0.073759 0.350316 -2.458615
2012-05-31 04:51:20 51°14.579 2°55.004 22.0718 0.073759 0.35022 -2.458615
2012-05-31 04:51:25 51°14.591 2°54.99 22.0491 0.073759 0.35022 -2.458615
2012-05-31 04:51:30 51°14.604 2°54.976 22.0998 0.073759 0.350215 -2.458615
2012-05-31 04:51:35 51°14.617 2°54.961 22.1332 0.073759 0.350266 -2.458615
2012-05-31 04:51:39 51°14.627 2°54.949 22.0264 0.073759 0.350327 -2.458615
2012-05-31 04:51:45 51°14.641 2°54.931 21.9277 0.073759 0.350413 -2.458615
2012-05-31 04:51:50 51°14.654 2°54.916 22.0386 0.073759 0.35051 -2.458615
2012-05-31 04:51:55 51°14.667 2°54.9 21.9321 0.073759 0.35051 -2.458615
2012-05-31 04:51:59 51°14.678 2°54.889 22.0947 0.073759 0.350571 -2.458615
2012-05-31 04:52:04 51°14.69 2°54.874 22.0675 0.073759 0.350612 -2.458615
2012-05-31 04:52:10 51°14.706 2°54.855 22.0047 0.073759 0.350622 -2.458615
2012-05-31 04:52:14 51°14.716 2°54.842 22.0083 0.073759 0.350607 -2.458615
2012-05-31 04:52:19 51°14.728 2°54.825 22.0466 0.073759 0.350581 -2.458615
2012-05-31 04:52:24 51°14.741 2°54.809 21.9672 0.073759 0.350581 -2.458615
2012-05-31 04:52:29 51°14.754 2°54.793 21.9372 0.073759 0.350551 -2.458615
2012-05-31 04:52:35 51°14.77 2°54.774 22.0302 0.073759 0.35053 -2.458615
2012-05-31 04:52:41 51°14.785 2°54.756 21.9998 0.073759 0.350515 -2.458615
2012-05-31 04:52:46 51°14.799 2°54.741 21.9851 0.073759 0.350505 -2.458615
2012-05-31 04:52:51 51°14.812 2°54.726 22.0767 0.073759 0.350515 -2.458615
2012-05-31 04:52:56 51°14.825 2°54.711 21.9662 0.073759 0.350515 -2.458615
2012-05-31 04:53:01 51°14.838 2°54.695 21.9781 0.073759 0.35052 -2.458615
2012-05-31 04:53:06 51°14.851 2°54.68 21.966 0.073759 0.35053 -2.458615
2012-05-31 04:53:11 51°14.864 2°54.666 21.9918 0.073759 0.35053 -2.458615
2012-05-31 04:53:15 51°14.875 2°54.654 22.0306 0.073759 0.35053 -2.458615
2012-05-31 04:53:21 51°14.891 2°54.638 22.037 0.073759 0.35053 -2.458615
2012-05-31 04:53:26 51°14.905 2°54.624 22.0818 0.073759 0.35053 -2.458615
2012-05-31 04:53:31 51°14.919 2°54.609 22.0474 0.073759 0.350541 -2.458615
2012-05-31 04:53:35 51°14.929 2°54.597 21.9841 0.073759 0.350551 -2.458615
2012-05-31 04:53:41 51°14.945 2°54.58 22.0687 0.073759 0.350551 -2.458615
2012-05-31 04:53:46 51°14.958 2°54.566 21.9746 0.073759 0.350556 -2.458615
2012-05-31 04:53:51 51°14.971 2°54.551 22.0485 0.073759 0.350571 -2.458615
2012-05-31 04:53:55 51°14.981 2°54.538 21.9854 0.073759 0.350571 -2.458615
2012-05-31 04:54:01 51°14.996 2°54.519 22.0294 0.073759 0.350576 -2.458615
2012-05-31 04:54:06 51°15.008 2°54.503 21.9314 0.073759 0.350586 -2.458615
2012-05-31 04:54:11 51°15.02 2°54.486 21.9969 0.073759 0.350597 -2.458615
2012-05-31 04:54:15 51°15.03 2°54.472 21.9742 0.073759 0.350592 -2.458615
2012-05-31 04:54:21 51°15.045 2°54.452 21.9339 0.073759 0.350586 -2.458615
2012-05-31 04:54:26 51°15.057 2°54.436 21.9983 0.073759 0.350586 -2.458615
2012-05-31 04:54:31 51°15.07 2°54.421 21.9864 0.073759 0.350581 -2.458615
2012-05-31 04:54:35 51°15.081 2°54.409 21.9762 0.073759 0.350576 -2.458615
2012-05-31 04:54:41 51°15.097 2°54.391 22.0196 0.073759 0.350576 -2.458615
2012-05-31 04:54:46 51°15.11 2°54.376 21.9648 0.073759 0.350586 -2.458615
2012-05-31 04:54:51 51°15.123 2°54.36 22.0147 0.073759 0.350602 -2.458615
2012-05-31 04:54:56 51°15.135 2°54.345 21.9735 0.073759 0.350602 -2.458615
2012-05-31 04:55:01 51°15.148 2°54.33 21.9315 0.073759 0.350607 -2.458615
2012-05-31 04:55:06 51°15.162 2°54.315 22.0085 0.073759 0.350612 -2.458615
2012-05-31 04:55:11 51°15.175 2°54.3 22.0037 0.073759 0.350622 -2.458615
2012-05-31 04:55:15 51°15.185 2°54.288 22.0114 0.073759 0.350632 -2.458615
2012-05-31 04:55:21 51°15.201 2°54.269 21.9911 0.073759 0.350643 -2.458615
2012-05-31 04:55:26 51°15.214 2°54.255 21.9618 0.073759 0.350643 -2.458615
2012-05-31 04:55:31 51°15.227 2°54.24 22.0122 0.073759 0.350653 -2.458615
2012-05-31 04:55:35 51°15.237 2°54.228 22.0081 0.073759 0.350653 -2.458615
2012-05-31 04:55:41 51°15.253 2°54.209 21.9644 0.073759 0.350658 -2.458615
2012-05-31 04:55:46 51°15.266 2°54.194 21.9932 0.073759 0.350653 -2.458615
2012-05-31 04:55:51 51°15.279 2°54.179 21.9931 0.073759 0.350658 -2.458615
2012-05-31 04:55:55 51°15.29 2°54.167 21.9337 0.073759 0.350658 -2.458615
2012-05-31 04:56:01 51°15.305 2°54.149 21.9326 0.073759 0.350658 -2.458615
2012-05-31 04:56:06 51°15.318 2°54.133 21.9742 0.073759 0.350663 -2.458615
2012-05-31 04:56:11 51°15.331 2°54.118 21.9323 0.073759 0.350658 -2.458615
2012-05-31 04:56:15 51°15.342 2°54.106 21.9262 0.073656 0.35016 -2.458615
2012-05-31 04:56:21 51°15.358 2°54.088 21.9825 0.073656 0.35016 -2.458615
2012-05-31 04:56:26 51°15.371 2°54.073 21.9276 0.073656 0.35016 -2.458615
2012-05-31 04:56:31 51°15.385 2°54.059 21.9776 0.073759 0.350668 -2.458615
2012-05-31 04:56:35 51°15.395 2°54.046 21.9584 0.073656 0.350176 -2.458615
2012-05-31 04:56:40 51°15.408 2°54.031 21.9754 0.073656 0.350191 -2.458615
2012-05-31 04:56:45 51°15.421 2°54.015 21.9233 0.073656 0.350196 -2.458615
2012-05-31 04:56:50 51°15.434 2°54 21.9207 0.073656 0.350196 -2.458615
2012-05-31 04:56:55 51°15.447 2°53.985 22.0031 0.073656 0.350196 -2.458615
2012-05-31 04:57:00 51°15.459 2°53.968 21.9803 0.073759 0.350709 -2.458615
2012-05-31 04:57:05 51°15.471 2°53.952 21.9883 0.073656 0.350211 -2.458615
2012-05-31 04:57:11 51°15.486 2°53.932 21.9918 0.073656 0.350211 -2.458615
2012-05-31 04:57:15 51°15.496 2°53.919 21.9569 0.073656 0.350206 -2.458615
2012-05-31 04:57:21 51°15.511 2°53.899 20.9433 0.073656 0.349936 -2.458615
2012-05-31 04:57:26 51°15.524 2°53.883 19.315 0.073656 0.349936 -2.458615
2012-05-31 04:57:31 51°15.537 2°53.868 18.3229 0.073553 0.347782 -2.458615
2012-05-31 04:57:36 51°15.549 2°53.851 17.8661 0.07345 0.34777 -2.458615
2012-05-31 04:57:41 51°15.562 2°53.835 17.4469 0.275111 1.400399 -2.458615
2012-05-31 04:57:46 51°15.574 2°53.818 17.1471 1.277496 7.443498 -2.458615
2012-05-31 04:57:51 51°15.586 2°53.802 17.0205 1.973015 12.145719 -2.458615
2012-05-31 04:57:55 51°15.596 2°53.788 17.0117 1.973015 12.145719 -2.458615
2012-05-31 04:58:01 51°15.611 2°53.768 16.9388 2.281597 14.676189 -2.458615
2012-05-31 04:58:06 51°15.624 2°53.753 16.7558 2.481575 16.519924 -2.458615
2012-05-31 04:58:11 51°15.636 2°53.737 16.593 2.669645 18.286625 -2.458615
2012-05-31 04:58:15 51°15.647 2°53.725 16.539 3.012071 21.340239 -2.458615
2012-05-31 04:58:21 51°15.662 2°53.706 16.6209 3.275876 23.712189 -2.458615
2012-05-31 04:58:26 51°15.675 2°53.691 16.5827 3.275876 23.712189 -2.458615
2012-05-31 04:58:31 51°15.688 2°53.676 16.4414 3.688937 27.345239 -2.458615
2012-05-31 04:58:35 51°15.699 2°53.665 16.4062 3.887311 29.199759 -2.458615
2012-05-31 04:58:41 51°15.714 2°53.647 16.3629 3.932904 29.757993 -2.458615
2012-05-31 04:58:46 51°15.727 2°53.633 16.4305 3.94503 29.997256 -2.458615
2012-05-31 04:58:51 51°15.74 2°53.618 16.3593 3.931458 29.994731 -2.458615
2012-05-31 04:58:55 51°15.75 2°53.605 16.3094 3.931458 29.994731 -2.458615
2012-05-31 04:59:01 51°15.765 2°53.585 16.3151 3.924828 30.021476 -2.458615
2012-05-31 04:59:06 51°15.777 2°53.569 16.3001 3.914571 30.005459 -2.458615
2012-05-31 04:59:11 51°15.789 2°53.551 16.2878 3.89758 29.925267 -2.458615
2012-05-31 04:59:15 51°15.798 2°53.537 16.2193 3.887634 29.899122 -2.458615
2012-05-31 04:59:21 51°15.812 2°53.516 16.2298 3.880382 29.870121 -2.458615
2012-05-31 04:59:26 51°15.824 2°53.499 16.2106 3.880382 29.870121 -2.458615
2012-05-31 04:59:31 51°15.836 2°53.482 16.2776 3.880279 29.907186 -2.458615
2012-05-31 04:59:35 51°15.846 2°53.468 16.2292 3.876861 29.90985 -2.458615
2012-05-31 04:59:41 51°15.86 2°53.446 16.2163 3.875307 29.91887 -2.458615
2012-05-31 04:59:46 51°15.871 2°53.429 16.251 3.886083 30.042415 -2.458615
2012-05-31 04:59:51 51°15.883 2°53.411 16.2183 3.885047 30.059058 -2.458615
2012-05-31 04:59:55 51°15.893 2°53.397 16.255 3.885047 30.059058 -2.458615
2012-05-31 05:00:01 51°15.907 2°53.375 16.1653 3.879763 30.033047 -2.458615
2012-05-31 05:00:06 51°15.919 2°53.358 16.1549 3.870439 29.963689 -2.458615
2012-05-31 05:00:11 51°15.931 2°53.34 16.1916 3.860389 29.882002 -2.458615
2012-05-31 05:00:15 51°15.94 2°53.325 16.1814 3.850651 29.810865 -2.458615
2012-05-31 05:00:21 51°15.954 2°53.304 16.1728 3.839152 29.723329 -2.458615
2012-05-31 05:00:26 51°15.966 2°53.286 16.1526 3.839152 29.723329 -2.458615
2012-05-31 05:00:31 51°15.978 2°53.267 16.1698 3.872615 30.015919 -2.458615
2012-05-31 05:00:35 51°15.987 2°53.253 16.1335 3.871165 30.016215 -2.458615
2012-05-31 05:00:40 51°15.999 2°53.235 16.1325 3.869715 30.022618 -2.458615
2012-05-31 05:00:46 51°16.012 2°53.213 16.1379 3.867954 30.009857 -2.458615
2012-05-31 05:00:51 51°16.024 2°53.195 16.1221 3.86671 30.00645 -2.458615
2012-05-31 05:00:55 51°16.034 2°53.181 16.1514 3.86671 30.00645 -2.458615
2012-05-31 05:01:00 51°16.045 2°53.163 16.1385 3.865882 30.00601 -2.458615
2012-05-31 05:01:05 51°16.058 2°53.145 16.1367 3.864121 29.999349 -2.458615
2012-05-31 05:01:11 51°16.072 2°53.125 16.1328 3.862049 29.986337 -2.458615
2012-05-31 05:01:15 51°16.082 2°53.112 16.1104 3.861427 29.988905 -2.458615
2012-05-31 05:01:20 51°16.095 2°53.095 16.1059 3.859459 29.983502 -2.458615
2012-05-31 05:01:25 51°16.107 2°53.078 16.0791 3.859459 29.983502 -2.458615
2012-05-31 05:01:30 51°16.119 2°53.061 16.0682 3.858734 29.980289 -2.458615
2012-05-31 05:01:35 51°16.132 2°53.044 16.1044 3.858216 29.980089 -2.458615
2012-05-31 05:01:40 51°16.144 2°53.027 16.079 3.857491 29.976875 -2.458615
2012-05-31 05:01:45 51°16.156 2°53.01 16.0612 3.857698 29.984167 -2.458615
2012-05-31 05:01:50 51°16.168 2°52.993 16.0413 3.856662 29.981323 -2.458615
2012-05-31 05:01:55 51°16.181 2°52.976 16.0292 3.856558 29.988989 -2.458615
2012-05-31 05:01:59 51°16.191 2°52.964 16.0421 3.856558 29.988989 -2.458615
2012-05-31 05:02:04 51°16.203 2°52.948 16.0126 3.856351 30.000662 -2.458615
2012-05-31 05:02:10 51°16.219 2°52.93 16.0149 3.855834 29.999853 -2.458615
2012-05-31 05:02:14 51°16.23 2°52.919 16.0062 3.856041 30.005934 -2.458615
2012-05-31 05:02:19 51°16.243 2°52.906 15.9924 3.855627 30.012765 -2.458615
2012-05-31 05:02:24 51°16.256 2°52.891 15.9912 3.855627 30.012765 -2.458615
2012-05-31 05:02:29 51°16.269 2°52.877 15.99 3.855523 30.027202 -2.458615
2012-05-31 05:02:34 51°16.283 2°52.864 15.9781 3.855005 30.028238 -2.458615
2012-05-31 05:02:39 51°16.297 2°52.851 15.968 3.854073 30.028139 -2.458615
2012-05-31 05:02:44 51°16.311 2°52.838 15.9587 3.85428 30.036691 -2.458615
2012-05-31 05:02:49 51°16.325 2°52.826 15.9467 3.854591 30.048606 -2.458615
2012-05-31 05:02:54 51°16.339 2°52.814 15.9549 3.854591 30.048606 -2.458615
2012-05-31 05:02:59 51°16.353 2°52.801 15.9488 3.854695 30.059961 -2.458615
2012-05-31 05:03:04 51°16.367 2°52.789 15.9305 3.854488 30.066165 -2.458615
2012-05-31 05:03:09 51°16.38 2°52.775 15.9401 3.854695 30.072889 -2.458615
2012-05-31 05:03:14 51°16.394 2°52.761 15.9251 3.854799 30.083031 -2.458615
2012-05-31 05:03:19 51°16.407 2°52.746 15.9303 3.854799 30.087963 -2.458615
2012-05-31 05:03:23 51°16.418 2°52.735 15.9351 3.854799 30.087963 -2.458615
2012-05-31 05:03:28 51°16.432 2°52.722 15.9416 3.854592 30.094798 -2.458615
2012-05-31 05:03:33 51°16.446 2°52.711 15.9293 3.85511 30.104852 -2.458615
2012-05-31 05:03:39 51°16.464 2°52.698 15.9174 3.854592 30.105907 -2.458615
2012-05-31 05:03:43 51°16.476 2°52.689 15.9325 3.855007 30.115685 -2.458615
2012-05-31 05:03:48 51°16.49 2°52.678 15.9136 3.854178 30.112188 -2.458615
2012-05-31 05:03:53 51°16.505 2°52.667 15.9287 3.854178 30.112188 -2.458615
2012-05-31 05:03:58 51°16.519 2°52.657 15.9158 3.853349 30.107455 -2.458615
2012-05-31 05:04:03 51°16.534 2°52.647 15.9116 3.85221 30.099403 -2.458615
2012-05-31 05:04:08 51°16.549 2°52.637 15.9229 3.852106 30.099738 -2.458615
2012-05-31 05:04:13 51°16.563 2°52.628 15.9235 3.853867 30.11752 -2.458615
2012-05-31 05:04:18 51°16.578 2°52.617 15.9116 3.852313 30.107099 -2.458615
2012-05-31 05:04:23 51°16.592 2°52.607 15.9029 3.852313 30.107099 -2.458615
2012-05-31 05:04:27 51°16.604 2°52.599 15.9072 3.85221 30.108671 -2.458615
2012-05-31 05:04:32 51°16.618 2°52.589 15.9091 3.856354 30.148419 -2.458615
2012-05-31 05:04:38 51°16.636 2°52.578 15.9196 3.882048 30.37263 -2.458615
2012-05-31 05:04:43 51°16.651 2°52.57 15.9082 3.881841 30.372697 -2.458615
2012-05-31 05:04:47 51°16.662 2°52.563 15.899 3.881841 30.373321 -2.458615
2012-05-31 05:04:52 51°16.678 2°52.556 15.9136 3.881841 30.373321 -2.458615
2012-05-31 05:04:57 51°16.693 2°52.548 15.8959 3.881323 30.373176 -2.458615
2012-05-31 05:05:02 51°16.708 2°52.54 15.9167 3.880805 30.372408 -2.458615
2012-05-31 05:05:07 51°16.723 2°52.532 15.9135 3.880183 30.367618 -2.458615
2012-05-31 05:05:12 51°16.738 2°52.524 15.9032 3.87894 30.357414 -2.458615
2012-05-31 05:05:17 51°16.752 2°52.516 15.8986 3.879251 30.361368 -2.458615
2012-05-31 05:05:22 51°16.768 2°52.508 15.9042 3.879251 30.361368 -2.458615
2012-05-31 05:05:27 51°16.782 2°52.501 15.9029 3.87894 30.359908 -2.458615
2012-05-31 05:05:32 51°16.797 2°52.493 15.8988 3.878318 30.357613 -2.458615
2012-05-31 05:05:37 51°16.812 2°52.485 15.9139 3.877697 30.351574 -2.458615
2012-05-31 05:05:42 51°16.827 2°52.478 15.9028 3.877075 30.346784 -2.458615
2012-05-31 05:05:47 51°16.842 2°52.47 15.894 3.87635 30.34109 -2.458615
2012-05-31 05:05:52 51°16.857 2°52.462 15.911 3.87635 30.34109 -2.458615
2012-05-31 05:05:57 51°16.872 2°52.454 15.9006 3.881116 30.385102 -2.458615
2012-05-31 05:06:02 51°16.887 2°52.447 15.8942 3.880701 30.380867 -2.458615
2012-05-31 05:06:07 51°16.902 2°52.439 15.8936 3.88008 30.377324 -2.458615
2012-05-31 05:06:12 51°16.917 2°52.432 15.8943 3.879769 30.375241 -2.458615
2012-05-31 05:06:17 51°16.933 2°52.427 15.8911 3.878837 30.367117 -2.458615
2012-05-31 05:06:22 51°16.948 2°52.421 15.8944 3.878837 30.367117 -2.458615
2012-05-31 05:06:27 51°16.963 2°52.417 15.8927 3.878526 30.365033 -2.458615
2012-05-31 05:06:32 51°16.979 2°52.412 15.8943 3.876868 30.351215 -2.458615
2012-05-31 05:06:37 51°16.994 2°52.409 15.8887 3.876454 30.349476 -2.458615
2012-05-31 05:06:42 51°17.009 2°52.404 15.8977 3.876246 30.349542 -2.458615
2012-05-31 05:06:47 51°17.025 2°52.401 15.8933 3.875832 30.346555 -2.458615
2012-05-31 05:06:52 51°17.04 2°52.398 15.887 3.875832 30.346555 -2.458615
2012-05-31 05:06:57 51°17.055 2°52.394 15.9012 3.873967 30.332178 -2.458615
2012-05-31 05:07:02 51°17.071 2°52.391 15.8942 3.873138 30.326204 -2.458615
2012-05-31 05:07:07 51°17.087 2°52.389 15.8891 3.875625 30.348493 -2.458615
2012-05-31 05:07:12 51°17.102 2°52.386 15.8877 3.875521 30.348838 -2.458615
2012-05-31 05:07:17 51°17.118 2°52.384 15.8813 3.874692 30.340992 -2.458615
2012-05-31 05:07:22 51°17.133 2°52.38 15.885 3.874692 30.340992 -2.458615
2012-05-31 05:07:27 51°17.149 2°52.379 15.8739 3.874174 30.337726 -2.458615
2012-05-31 05:07:32 51°17.164 2°52.375 15.8867 3.873864 30.335641 -2.458615
2012-05-31 05:07:37 51°17.18 2°52.373 15.8935 3.873656 30.333835 -2.458615
2012-05-31 05:07:42 51°17.195 2°52.37 15.889 3.873449 30.332654 -2.458615
2012-05-31 05:07:47 51°17.211 2°52.368 15.8831 3.873035 30.330913 -2.458615
2012-05-31 05:07:52 51°17.227 2°52.365 15.8722 3.873035 30.330913 -2.458615
2012-05-31 05:07:57 51°17.242 2°52.362 15.8708 3.872828 30.330355 -2.458615
2012-05-31 05:08:02 51°17.258 2°52.359 15.8699 3.871584 30.323262 -2.458615
2012-05-31 05:08:07 51°17.273 2°52.356 15.8683 3.870963 30.319092 -2.458615
2012-05-31 05:08:12 51°17.289 2°52.353 15.8696 3.870548 30.31548 -2.458615
2012-05-31 05:08:17 51°17.304 2°52.35 15.871 3.870238 30.312148 -2.458615
2012-05-31 05:08:22 51°17.32 2°52.347 15.8708 3.870238 30.312148 -2.458615
2012-05-31 05:08:27 51°17.335 2°52.344 15.8672 3.868684 30.301098 -2.458615
2012-05-31 05:08:32 51°17.351 2°52.341 15.878 3.866611 30.285532 -2.458615
2012-05-31 05:08:37 51°17.367 2°52.338 15.8682 3.866404 30.285595 -2.458615
2012-05-31 05:08:42 51°17.383 2°52.336 15.877 3.866301 30.287184 -2.458615
2012-05-31 05:08:47 51°17.398 2°52.334 15.8737 3.866094 30.286001 -2.458615
2012-05-31 05:08:52 51°17.414 2°52.332 15.8716 3.866094 30.286001 -2.458615
2012-05-31 05:08:57 51°17.43 2°52.331 15.8623 3.865161 30.277874 -2.458615
2012-05-31 05:09:02 51°17.446 2°52.329 15.8645 3.870652 30.326987 -2.458615
2012-05-31 05:09:07 51°17.462 2°52.328 15.8572 3.869927 30.320664 -2.458615
2012-05-31 05:09:12 51°17.477 2°52.327 15.8603 3.869513 30.317052 -2.458615
2012-05-31 05:09:17 51°17.493 2°52.328 15.8557 3.868995 30.313159 -2.458615
2012-05-31 05:09:22 51°17.509 2°52.327 15.8473 3.868995 30.313159 -2.458615
2012-05-31 05:09:27 51°17.525 2°52.326 15.8448 3.866715 30.29329 -2.458615
2012-05-31 05:09:32 51°17.541 2°52.323 15.8478 3.859152 30.230482 -2.458615
2012-05-31 05:09:37 51°17.557 2°52.322 15.8443 3.856251 30.206445 -2.458615
2012-05-31 05:09:42 51°17.572 2°52.32 15.8457 3.855526 30.20199 -2.458615
2012-05-31 05:09:47 51°17.588 2°52.318 15.8326 3.855112 30.200243 -2.458615
2012-05-31 05:09:52 51°17.603 2°52.316 15.8282 3.855112 30.200243 -2.458615
2012-05-31 05:09:57 51°17.619 2°52.314 15.8196 3.854697 30.20036 -2.458615
2012-05-31 05:10:02 51°17.635 2°52.313 15.8284 3.854076 30.196807 -2.458615
2012-05-31 05:10:07 51°17.651 2°52.312 15.8144 3.853454 30.194497 -2.458615
2012-05-31 05:10:12 51°17.666 2°52.311 15.8103 3.85304 30.193371 -2.458615
2012-05-31 05:10:17 51°17.682 2°52.31 15.8166 3.850968 30.177794 -2.458615
2012-05-31 05:10:22 51°17.698 2°52.308 15.7965 3.850968 30.177794 -2.458615
2012-05-31 05:10:27 51°17.714 2°52.308 15.7858 3.854387 30.212578 -2.458615
2012-05-31 05:10:32 51°17.73 2°52.308 15.7829 3.866509 30.322683 -2.458615
2012-05-31 05:10:37 51°17.745 2°52.305 15.772 3.866612 30.326086 -2.458615
2012-05-31 05:10:42 51°17.761 2°52.306 15.7736 3.867234 30.335261 -2.458615
2012-05-31 05:10:47 51°17.776 2°52.303 15.7534 3.86568 30.326071 -2.458615
2012-05-31 05:10:52 51°17.792 2°52.299 15.7487 3.86568 30.326071 -2.458615
2012-05-31 05:10:57 51°17.807 2°52.299 15.7503 3.865162 30.32405 -2.458615
2012-05-31 05:11:02 51°17.823 2°52.296 15.7248 3.843302 30.13952 -2.458615
2012-05-31 05:11:07 51°17.838 2°52.295 15.7308 3.835014 30.075293 -2.458615
2012-05-31 05:11:12 51°17.854 2°52.293 15.7302 3.852626 30.237083 -2.458615
2012-05-31 05:11:17 51°17.87 2°52.291 15.712 3.847239 30.195031 -2.458615
2012-05-31 05:11:22 51°17.886 2°52.291 15.709 3.847239 30.195031 -2.458615
2012-05-31 05:11:27 51°17.901 2°52.289 15.6908 3.851694 30.243915 -2.458615
2012-05-31 05:11:32 51°17.917 2°52.289 15.6801 3.85014 30.235333 -2.458615
2012-05-31 05:11:37 51°17.932 2°52.285 15.677 3.850969 30.250693 -2.458615
2012-05-31 05:11:42 51°17.948 2°52.284 15.6797 3.850866 30.254786 -2.458615
2012-05-31 05:11:47 51°17.964 2°52.282 15.6674 3.850555 30.25707 -2.458615
2012-05-31 05:11:52 51°17.98 2°52.281 15.6593 3.850555 30.25707 -2.458615
2012-05-31 05:11:57 51°17.995 2°52.28 15.6594 3.860294 30.347865 -2.458615
2012-05-31 05:12:02 51°18.011 2°52.279 15.6486 3.858325 30.339425 -2.458615
2012-05-31 05:12:07 51°18.027 2°52.279 15.6422 3.858429 30.349742 -2.458615
2012-05-31 05:12:12 51°18.043 2°52.278 15.629 3.859776 30.36781 -2.458615
2012-05-31 05:12:17 51°18.059 2°52.277 15.6306 3.860812 30.383165 -2.458615
2012-05-31 05:12:22 51°18.074 2°52.276 15.6288 3.860812 30.383165 -2.458615
2012-05-31 05:12:27 51°18.09 2°52.276 15.6299 3.858015 30.365583 -2.458615
2012-05-31 05:12:32 51°18.106 2°52.276 15.6212 3.857393 30.365795 -2.458615
2012-05-31 05:12:37 51°18.122 2°52.275 15.6152 3.856565 30.362936 -2.458615
2012-05-31 05:12:42 51°18.137 2°52.275 15.6025 3.856047 30.364056 -2.458615
2012-05-31 05:12:47 51°18.153 2°52.275 15.5849 3.856047 30.372861 -2.458615
2012-05-31 05:12:52 51°18.169 2°52.275 15.5832 3.856047 30.372861 -2.458615
2012-05-31 05:12:57 51°18.185 2°52.277 15.5815 3.856254 30.380341 -2.458615
2012-05-31 05:13:02 51°18.201 2°52.278 15.5774 3.855736 30.379578 -2.458615
2012-05-31 05:13:07 51°18.217 2°52.279 15.5617 3.855633 30.381188 -2.458615
2012-05-31 05:13:12 51°18.232 2°52.281 15.5581 3.854493 30.374974 -2.458615
2012-05-31 05:13:17 51°18.248 2°52.282 15.5633 3.853354 30.370018 -2.458615
2012-05-31 05:13:22 51°18.264 2°52.283 15.539 3.853354 30.370018 -2.458615
2012-05-31 05:13:27 51°18.28 2°52.285 15.5247 3.852732 30.372753 -2.458615
2012-05-31 05:13:32 51°18.296 2°52.284 15.5267 3.852214 30.377029 -2.458615
2012-05-31 05:13:37 51°18.311 2°52.286 15.5157 3.851385 30.375429 -2.458615
2012-05-31 05:13:42 51°18.327 2°52.286 15.513 3.85066 30.374738 -2.458615
2012-05-31 05:13:47 51°18.343 2°52.285 15.4999 3.849003 30.368384 -2.458615
2012-05-31 05:13:52 51°18.359 2°52.285 15.5102 3.849003 30.368384 -2.458615
2012-05-31 05:13:57 51°18.374 2°52.285 15.5005 3.848381 30.368602 -2.458615
2012-05-31 05:14:02 51°18.39 2°52.286 15.4976 3.847656 30.371696 -2.458615
2012-05-31 05:14:07 51°18.406 2°52.286 15.4915 3.848589 30.386828 -2.458615
2012-05-31 05:14:12 51°18.422 2°52.287 15.4688 3.847449 30.384393 -2.458615
2012-05-31 05:14:17 51°18.437 2°52.288 15.4787 3.846621 30.383427 -2.458615
2012-05-31 05:14:22 51°18.453 2°52.289 15.4729 3.846621 30.383427 -2.458615
2012-05-31 05:14:27 51°18.469 2°52.29 15.4553 3.845792 30.383092 -2.458615
2012-05-31 05:14:32 51°18.485 2°52.292 15.4407 3.845896 30.388426 -2.458615
2012-05-31 05:14:37 51°18.5 2°52.294 15.425 3.845481 30.38984 -2.458615
2012-05-31 05:14:42 51°18.516 2°52.295 15.4269 3.846414 30.405628 -2.458615
2012-05-31 05:14:47 51°18.532 2°52.298 15.4172 3.844963 30.39477 -2.458615
2012-05-31 05:14:52 51°18.547 2°52.298 15.4067 3.844963 30.39477 -2.458615
2012-05-31 05:14:57 51°18.563 2°52.299 15.3929 3.843617 30.38925 -2.458615
2012-05-31 05:15:02 51°18.579 2°52.299 15.3863 3.84227 30.383728 -2.458615
2012-05-31 05:15:07 51°18.595 2°52.299 15.3861 3.842374 30.393499 -2.458615
2012-05-31 05:15:12 51°18.611 2°52.301 15.3784 3.840613 30.386228 -2.458615
2012-05-31 05:15:17 51°18.626 2°52.298 15.3744 3.838748 30.37551 -2.458615
2012-05-31 05:15:22 51°18.642 2°52.301 15.3789 3.838748 30.37551 -2.458615
2012-05-31 05:15:27 51°18.658 2°52.298 15.3629 3.841235 30.408806 -2.458615
2012-05-31 05:15:32 51°18.674 2°52.299 15.3566 3.840717 30.412487 -2.458615
2012-05-31 05:15:37 51°18.69 2°52.297 15.3526 3.840406 30.41863 -2.458615
2012-05-31 05:15:42 51°18.705 2°52.297 15.3503 3.838438 30.407629 -2.458615
2012-05-31 05:15:47 51°18.721 2°52.296 15.326 3.837091 30.403373 -2.458615
2012-05-31 05:15:52 51°18.737 2°52.297 15.3198 3.837091 30.403373 -2.458615
2012-05-31 05:15:57 51°18.753 2°52.297 15.3209 3.835537 30.394751 -2.458615
2012-05-31 05:16:02 51°18.769 2°52.296 15.3148 3.834191 30.387953 -2.458615
2012-05-31 05:16:07 51°18.785 2°52.296 15.3155 3.838749 30.434503 -2.458615
2012-05-31 05:16:12 51°18.801 2°52.296 15.2989 3.83792 30.432278 -2.458615
2012-05-31 05:16:17 51°18.816 2°52.295 15.2873 3.838024 30.438279 -2.458615
2012-05-31 05:16:22 51°18.833 2°52.295 15.2791 3.838024 30.438279 -2.458615
2012-05-31 05:16:27 51°18.849 2°52.293 15.2724 3.836884 30.436492 -2.458615
2012-05-31 05:16:32 51°18.864 2°52.293 15.2666 3.775558 29.901575 -2.458615
2012-05-31 05:16:37 51°18.88 2°52.292 15.2663 3.789853 30.032498 -2.458615
2012-05-31 05:16:42 51°18.896 2°52.292 15.263 3.789335 30.033585 -2.458615
2012-05-31 05:16:47 51°18.912 2°52.292 15.2626 3.788196 30.031707 -2.458615
2012-05-31 05:16:52 51°18.928 2°52.291 15.2619 3.788196 30.031707 -2.458615
2012-05-31 05:16:57 51°18.945 2°52.292 15.2503 3.789543 30.05175 -2.458615
2012-05-31 05:17:02 51°18.96 2°52.292 15.2444 3.789543 30.059297 -2.458615
2012-05-31 05:17:07 51°18.976 2°52.292 15.2412 3.787886 30.050969 -2.458615
2012-05-31 05:17:12 51°18.993 2°52.292 15.2414 3.785917 30.039268 -2.458615
2012-05-31 05:17:17 51°19.009 2°52.294 15.2166 3.783017 30.018081 -2.458615
2012-05-31 05:17:22 51°19.025 2°52.292 15.2339 3.783017 30.018081 -2.458615
2012-05-31 05:17:27 51°19.041 2°52.295 15.2151 3.780531 29.998033 -2.458615
2012-05-31 05:17:32 51°19.057 2°52.294 15.2071 3.769344 29.903742 -2.458615
2012-05-31 05:17:37 51°19.073 2°52.294 15.1946 3.770173 29.917318 -2.458615
2012-05-31 05:17:42 51°19.089 2°52.295 15.1905 3.837196 30.512594 -2.458615
2012-05-31 05:17:47 51°19.105 2°52.293 15.188 3.837611 30.520098 -2.458615
2012-05-31 05:17:52 51°19.121 2°52.294 15.177 3.837611 30.520098 -2.458615
2012-05-31 05:17:57 51°19.137 2°52.294 15.1622 3.837404 30.522104 -2.458615
2012-05-31 05:18:02 51°19.153 2°52.294 15.1567 3.8373 30.526948 -2.458615
2012-05-31 05:18:07 51°19.169 2°52.293 15.1401 3.835228 30.51437 -2.458615
2012-05-31 05:18:12 51°19.185 2°52.294 15.1294 3.834814 30.520305 -2.458615
2012-05-31 05:18:17 51°19.202 2°52.293 15.117 3.834814 30.527993 -2.458615
2012-05-31 05:18:22 51°19.218 2°52.294 15.1221 3.834814 30.527993 -2.458615
2012-05-31 05:18:27 51°19.234 2°52.293 15.0971 3.834193 30.528896 -2.458615
2012-05-31 05:18:32 51°19.25 2°52.293 15.0829 3.834193 30.53659 -2.458615
2012-05-31 05:18:37 51°19.266 2°52.293 15.0737 3.833053 30.534188 -2.458615
2012-05-31 05:18:42 51°19.283 2°52.292 15.0579 3.833157 30.54409 -2.458615
2012-05-31 05:18:47 51°19.299 2°52.294 15.0499 3.832743 30.550689 -2.458615
2012-05-31 05:18:52 51°19.315 2°52.293 15.0417 3.832743 30.550689 -2.458615
2012-05-31 05:18:57 51°19.331 2°52.295 15.0303 3.832432 30.55757 -2.458615
2012-05-31 05:19:02 51°19.347 2°52.295 15.0138 3.831811 30.561054 -2.458615
2012-05-31 05:19:07 51°19.363 2°52.297 15.0075 3.831604 30.57015 -2.458615
2012-05-31 05:19:12 51°19.379 2°52.298 14.992 3.83119 30.577413 -2.458615
2012-05-31 05:19:17 51°19.395 2°52.298 14.983 3.83119 30.588363 -2.458615
2012-05-31 05:19:22 51°19.411 2°52.301 14.985 3.83119 30.588363 -2.458615
2012-05-31 05:19:27 51°19.428 2°52.298 14.9466 3.830776 30.593705 -2.458615
2012-05-31 05:19:32 51°19.443 2°52.301 14.9506 3.830569 30.602182 -2.458615
2012-05-31 05:19:37 51°19.459 2°52.299 14.9255 3.830258 30.61039 -2.458615
2012-05-31 05:19:42 51°19.475 2°52.3 14.9248 3.828808 30.608469 -2.458615
2012-05-31 05:19:47 51°19.491 2°52.298 14.9141 3.829222 30.622493 -2.458615
2012-05-31 05:19:52 51°19.507 2°52.298 14.9147 3.829222 30.622493 -2.458615
2012-05-31 05:19:57 51°19.523 2°52.298 14.8924 3.829015 30.630994 -2.458615
2012-05-31 05:20:02 51°19.539 2°52.298 14.8807 3.829015 30.641994 -2.458615
2012-05-31 05:20:07 51°19.555 2°52.298 14.8852 3.828912 30.65208 -2.458615
2012-05-31 05:20:12 51°19.571 2°52.297 14.886 3.824768 30.626178 -2.458615
2012-05-31 05:20:17 51°19.587 2°52.298 14.8704 3.824976 30.635149 -2.458615
2012-05-31 05:20:22 51°19.603 2°52.298 14.8551 3.824976 30.635149 -2.458615
2012-05-31 05:20:27 51°19.619 2°52.298 14.8539 3.824561 30.642473 -2.458615
2012-05-31 05:20:32 51°19.635 2°52.3 14.8458 3.824251 30.648133 -2.458615
2012-05-31 05:20:37 51°19.651 2°52.298 14.8497 3.82394 30.656392 -2.458615
2012-05-31 05:20:42 51°19.667 2°52.301 14.8386 3.824251 30.666956 -2.458615
2012-05-31 05:20:47 51°19.683 2°52.3 14.8313 3.824769 30.677425 -2.458615
2012-05-31 05:20:52 51°19.699 2°52.3 14.8346 3.824769 30.677425 -2.458615
2012-05-31 05:20:57 51°19.715 2°52.3 14.8158 3.824976 30.685774 -2.458615
2012-05-31 05:21:02 51°19.731 2°52.301 14.8098 3.824769 30.691729 -2.458615
2012-05-31 05:21:07 51°19.747 2°52.3 14.8021 3.825184 30.703889 -2.458615
2012-05-31 05:21:12 51°19.763 2°52.299 14.8062 3.823423 30.693368 -2.458615
2012-05-31 05:21:17 51°19.779 2°52.299 14.7862 3.82363 30.701078 -2.458615
2012-05-31 05:21:22 51°19.795 2°52.3 14.7854 3.82363 30.701078 -2.458615
2012-05-31 05:21:27 51°19.812 2°52.3 14.775 3.83803 30.835642 -2.458615
2012-05-31 05:21:32 51°19.828 2°52.302 14.7716 3.83803 30.840877 -2.458615
2012-05-31 05:21:37 51°19.844 2°52.302 14.7578 3.838031 30.848734 -2.458615
2012-05-31 05:21:42 51°19.86 2°52.303 14.7584 3.838238 30.855827 -2.458615
2012-05-31 05:21:47 51°19.876 2°52.305 14.7515 3.838238 30.86238 -2.458615
2012-05-31 05:21:52 51°19.892 2°52.307 14.7471 3.838238 30.86238 -2.458615
2012-05-31 05:21:57 51°19.908 2°52.307 14.7444 3.838445 30.870135 -2.458615
2012-05-31 05:22:02 51°19.924 2°52.309 14.74 3.838549 30.87959 -2.458615
2012-05-31 05:22:07 51°19.94 2°52.311 14.7206 3.838653 30.885768 -2.458615
2012-05-31 05:22:12 51°19.956 2°52.315 14.7334 3.838756 30.893918 -2.458615
2012-05-31 05:22:17 51°19.972 2°52.315 14.7244 3.838964 30.901687 -2.458615
2012-05-31 05:22:22 51°19.988 2°52.317 14.7193 3.838964 30.901687 -2.458615
2012-05-31 05:22:27 51°20.003 2°52.318 14.7027 3.839171 30.908143 -2.458615
2012-05-31 05:22:32 51°20.019 2°52.319 14.6945 3.839378 30.915918 -2.458615
2012-05-31 05:22:37 51°20.035 2°52.319 14.6792 3.839689 30.923965 -2.458615
2012-05-31 05:22:42 51°20.051 2°52.32 14.6845 3.840104 30.934262 -2.458615
2012-05-31 05:22:47 51°20.067 2°52.322 14.681 3.840207 30.941117 -2.458615
2012-05-31 05:22:52 51°20.083 2°52.323 14.6709 3.840207 30.941117 -2.458615
2012-05-31 05:22:57 51°20.099 2°52.325 14.6653 3.840622 30.948786 -2.458615
2012-05-31 05:23:02 51°20.115 2°52.326 14.6723 3.841036 30.957775 -2.458615
2012-05-31 05:23:07 51°20.131 2°52.326 14.669 3.841554 30.969016 -2.458615
2012-05-31 05:23:12 51°20.148 2°52.329 14.6498 3.842176 30.983173 -2.458615
2012-05-31 05:23:17 51°20.164 2°52.329 14.6656 3.842694 30.995747 -2.458615
2012-05-31 05:23:22 51°20.18 2°52.332 14.6599 3.843109 31.003432 -2.458615
2012-05-31 05:23:27 51°20.196 2°52.333 14.6584 3.843109 31.003432 -2.458615
2012-05-31 05:23:32 51°20.212 2°52.334 14.6443 3.843523 31.012442 -2.458615
2012-05-31 05:23:37 51°20.228 2°52.336 14.6397 3.84373 31.017609 -2.458615
2012-05-31 05:23:42 51°20.244 2°52.336 14.6493 3.844041 31.02437 -2.458615
2012-05-31 05:23:47 51°20.26 2°52.338 14.6305 3.844352 31.030471 -2.458615
2012-05-31 05:23:52 51°20.276 2°52.338 14.6375 3.844352 31.030471 -2.458615
2012-05-31 05:23:57 51°20.291 2°52.341 14.6293 3.844663 31.036573 -2.458615
2012-05-31 05:24:02 51°20.307 2°52.341 14.6204 3.844767 31.03949 -2.458615
2012-05-31 05:24:07 51°20.323 2°52.343 14.625 3.844974 31.044663 -2.458615
2012-05-31 05:24:12 51°20.339 2°52.342 14.6227 3.845285 31.052094 -2.458615
2012-05-31 05:24:17 51°20.355 2°52.344 14.6175 3.845388 31.056339 -2.458615
2012-05-31 05:24:22 51°20.371 2°52.344 14.6107 3.845388 31.056339 -2.458615
2012-05-31 05:24:27 51°20.387 2°52.346 14.6249 3.845596 31.060854 -2.458615
2012-05-31 05:24:32 51°20.403 2°52.346 14.6168 3.845803 31.066695 -2.458615
2012-05-31 05:24:37 51°20.419 2°52.349 14.6126 3.845803 31.070675 -2.458615
2012-05-31 05:24:42 51°20.435 2°52.348 14.6193 3.845907 31.074925 -2.458615
2012-05-31 05:24:47 51°20.451 2°52.351 14.6093 3.845803 31.075984 -2.458615
2012-05-31 05:24:52 51°20.467 2°52.353 14.602 3.845803 31.075984 -2.458615
2012-05-31 05:24:57 51°20.483 2°52.356 14.6074 3.845907 31.080235 -2.458615
2012-05-31 05:25:02 51°20.499 2°52.358 14.5976 3.845803 31.081958 -2.458615
2012-05-31 05:25:07 51°20.515 2°52.358 14.5945 3.845907 31.084882 -2.458615
2012-05-31 05:25:12 51°20.531 2°52.362 14.5857 3.845907 31.086211 -2.458615
2012-05-31 05:25:17 51°20.547 2°52.361 14.5815 3.84601 31.088471 -2.458615
2012-05-31 05:25:22 51°20.563 2°52.365 14.5793 3.84601 31.088471 -2.458615
2012-05-31 05:25:27 51°20.579 2°52.365 14.5713 3.84601 31.092457 -2.458615
2012-05-31 05:25:32 51°20.595 2°52.367 14.5732 3.84601 31.095115 -2.458615
2012-05-31 05:25:37 51°20.61 2°52.367 14.5653 3.846011 31.097108 -2.458615
2012-05-31 05:25:42 51°20.626 2°52.369 14.5612 3.846218 31.102962 -2.458615
2012-05-31 05:25:47 51°20.642 2°52.368 14.5691 3.846218 31.105621 -2.458615
2012-05-31 05:25:52 51°20.658 2°52.37 14.5792 3.846218 31.105621 -2.458615
2012-05-31 05:25:57 51°20.674 2°52.37 14.5532 3.846321 31.111875 -2.458615
2012-05-31 05:26:02 51°20.69 2°52.37 14.5514 3.846114 31.114666 -2.458615
2012-05-31 05:26:07 51°20.706 2°52.373 14.5463 3.845907 31.116128 -2.458615
2012-05-31 05:26:12 51°20.721 2°52.374 14.5331 3.845804 31.119189 -2.458615
2012-05-31 05:26:17 51°20.737 2°52.375 14.536 3.845597 31.120651 -2.458615
2012-05-31 05:26:22 51°20.754 2°52.377 14.53 3.845597 31.120651 -2.458615
2012-05-31 05:26:27 51°20.77 2°52.378 14.5237 3.845597 31.121317 -2.458615
2012-05-31 05:26:32 51°20.786 2°52.379 14.5201 3.845493 31.12105 -2.458615
2012-05-31 05:26:37 51°20.802 2°52.38 14.5166 3.845493 31.126378 -2.458615
2012-05-31 05:26:42 51°20.818 2°52.382 14.5105 3.845079 31.12864 -2.458615
2012-05-31 05:26:47 51°20.834 2°52.385 14.5068 3.844975 31.133037 -2.458615
2012-05-31 05:26:52 51°20.85 2°52.385 14.5024 3.844975 31.133037 -2.458615
2012-05-31 05:26:57 51°20.866 2°52.388 14.4966 3.844768 31.136503 -2.458615
2012-05-31 05:27:02 51°20.882 2°52.388 14.4966 3.844665 31.140237 -2.458615
2012-05-31 05:27:07 51°20.898 2°52.392 14.5005 3.846219 31.158918 -2.458615
2012-05-31 05:27:12 51°20.914 2°52.392 14.4862 3.846322 31.163858 -2.458615
2012-05-31 05:27:17 51°20.93 2°52.396 14.4832 3.846219 31.168265 -2.458615
2012-05-31 05:27:22 51°20.946 2°52.396 14.4804 3.846219 31.168265 -2.458615
2012-05-31 05:27:27 51°20.962 2°52.397 14.4723 3.846219 31.168933 -2.458615
2012-05-31 05:27:32 51°20.978 2°52.398 14.4895 3.846115 31.173343 -2.458615
2012-05-31 05:27:37 51°20.993 2°52.402 14.4891 3.846219 31.177619 -2.458615
2012-05-31 05:27:42 51°21.009 2°52.408 14.4772 3.846323 31.181227 -2.458615
2012-05-31 05:27:47 51°21.024 2°52.418 14.4924 3.846426 31.186174 -2.458615
2012-05-31 05:27:52 51°21.037 2°52.43 14.4657 3.846426 31.186174 -2.458615
2012-05-31 05:27:57 51°21.051 2°52.443 14.4401 3.84653 31.19179 -2.458615
2012-05-31 05:28:02 51°21.063 2°52.459 14.4538 3.846737 31.197675 -2.458615
2012-05-31 05:28:07 51°21.076 2°52.474 14.4492 3.846944 31.200883 -2.458615
2012-05-31 05:28:12 51°21.087 2°52.492 14.4486 3.847152 31.201415 -2.458615
2012-05-31 05:28:17 51°21.1 2°52.508 14.4325 3.847566 31.205826 -2.458615
2012-05-31 05:28:22 51°21.111 2°52.526 14.4417 3.847566 31.205826 -2.458615
2012-05-31 05:28:27 51°21.124 2°52.544 14.4437 3.848084 31.212511 -2.458615
2012-05-31 05:28:32 51°21.135 2°52.562 14.4337 3.848291 31.221748 -2.458615
2012-05-31 05:28:37 51°21.147 2°52.58 14.433 3.848395 31.230055 -2.458615
2012-05-31 05:28:42 51°21.16 2°52.596 14.4227 3.848084 31.23127 -2.458615
2012-05-31 05:28:47 51°21.172 2°52.614 14.4339 3.847877 31.234091 -2.458615
2012-05-31 05:28:51 51°21.182 2°52.627 14.4272 3.847877 31.234091 -2.458615
2012-05-31 05:28:57 51°21.196 2°52.648 14.4231 3.84767 31.237585 -2.458615
2012-05-31 05:29:02 51°21.209 2°52.665 14.424 3.847256 31.235852 -2.458615
2012-05-31 05:29:07 51°21.221 2°52.683 14.4215 3.847049 31.235321 -2.458615
2012-05-31 05:29:11 51°21.231 2°52.696 14.4179 3.846945 31.237739 -2.458615
2012-05-31 05:29:17 51°21.246 2°52.718 14.4249 3.846531 31.23802 -2.458615
2012-05-31 05:29:22 51°21.259 2°52.734 14.4135 3.846531 31.23802 -2.458615
2012-05-31 05:29:27 51°21.27 2°52.753 14.4172 3.84622 31.237895 -2.458615
2012-05-31 05:29:32 51°21.283 2°52.771 14.4092 3.846013 31.236693 -2.458615
2012-05-31 05:29:37 51°21.295 2°52.789 14.4066 3.845391 31.233087 -2.458615
2012-05-31 05:29:42 51°21.307 2°52.808 14.4128 3.844977 31.231353 -2.458615
2012-05-31 05:29:47 51°21.319 2°52.826 14.4099 3.844666 31.229886 -2.458615
2012-05-31 05:29:52 51°21.331 2°52.845 14.4088 3.844666 31.229886 -2.458615
2012-05-31 05:29:57 51°21.342 2°52.864 14.4107 3.844148 31.226544 -2.458615
2012-05-31 05:30:02 51°21.354 2°52.882 14.4062 3.84363 31.223874 -2.458615
2012-05-31 05:30:07 51°21.366 2°52.901 14.4129 3.843423 31.224685 -2.458615
2012-05-31 05:30:12 51°21.378 2°52.92 14.4125 3.842698 31.220812 -2.458615
2012-05-31 05:30:17 51°21.39 2°52.938 14.4109 3.842283 31.217735 -2.458615
2012-05-31 05:30:22 51°21.402 2°52.955 14.4096 3.842283 31.217735 -2.458615
2012-05-31 05:30:27 51°21.414 2°52.974 14.4196 3.841972 31.215596 -2.458615
2012-05-31 05:30:32 51°21.427 2°52.991 14.4137 3.841765 31.214393 -2.458615
2012-05-31 05:30:37 51°21.438 2°53.009 14.4184 3.841351 31.211317 -2.458615
2012-05-31 05:30:42 51°21.45 2°53.027 14.429 3.841144 31.210114 -2.458615
2012-05-31 05:30:47 51°21.463 2°53.044 14.4238 3.84104 31.209177 -2.458615
2012-05-31 05:30:52 51°21.475 2°53.062 14.4259 3.84104 31.209177 -2.458615
2012-05-31 05:30:57 51°21.486 2°53.08 14.4266 3.84104 31.208506 -2.458615
2012-05-31 05:31:02 51°21.497 2°53.099 14.4299 3.840833 31.206632 -2.458615
2012-05-31 05:31:07 51°21.509 2°53.118 14.4332 3.840626 31.204088 -2.458615
2012-05-31 05:31:11 51°21.518 2°53.132 14.4276 3.840418 31.200202 -2.458615
2012-05-31 05:31:17 51°21.533 2°53.152 14.4348 3.840315 31.195912 -2.458615
2012-05-31 05:31:22 51°21.545 2°53.17 14.4375 3.840315 31.195912 -2.458615
2012-05-31 05:31:27 51°21.557 2°53.187 14.4414 3.840211 31.192964 -2.458615
2012-05-31 05:31:32 51°21.57 2°53.204 14.4421 3.840004 31.18908 -2.458615
2012-05-31 05:31:37 51°21.582 2°53.222 14.4475 3.8399 31.186803 -2.458615
2012-05-31 05:31:42 51°21.595 2°53.238 14.4442 3.839693 31.18359 -2.458615
2012-05-31 05:31:47 51°21.607 2°53.256 14.4519 3.839279 31.179844 -2.458615
2012-05-31 05:31:52 51°21.621 2°53.272 14.4511 3.839279 31.179844 -2.458615
2012-05-31 05:31:57 51°21.633 2°53.289 14.4497 3.838968 31.175695 -2.458615
2012-05-31 05:32:02 51°21.646 2°53.307 14.458 3.838657 31.170877 -2.458615
2012-05-31 05:32:07 51°21.658 2°53.324 14.4622 3.838553 31.167932 -2.458615
2012-05-31 05:32:12 51°21.67 2°53.341 14.4602 3.838346 31.164051 -2.458615
2012-05-31 05:32:17 51°21.682 2°53.36 14.4675 3.838035 31.159234 -2.458615
2012-05-31 05:32:22 51°21.696 2°53.377 14.4712 3.838035 31.159234 -2.458615
2012-05-31 05:32:27 51°21.707 2°53.396 14.4688 3.837932 31.154952 -2.458615
2012-05-31 05:32:32 51°21.719 2°53.414 14.4735 3.837621 31.150806 -2.458615
2012-05-31 05:32:37 51°21.732 2°53.432 14.4798 3.837517 31.147863 -2.458615
2012-05-31 05:32:42 51°21.743 2°53.451 14.4828 3.837414 31.143584 -2.458615
2012-05-31 05:32:47 51°21.756 2°53.469 14.4864 3.837206 31.139706 -2.458615
2012-05-31 05:32:52 51°21.767 2°53.489 14.4879 3.837206 31.139706 -2.458615
2012-05-31 05:32:57 51°21.78 2°53.505 14.4905 3.837103 31.135428 -2.458615
2012-05-31 05:33:02 51°21.791 2°53.525 14.4934 3.836896 31.131552 -2.458615
2012-05-31 05:33:07 51°21.803 2°53.543 14.496 3.836792 31.127944 -2.458615
2012-05-31 05:33:12 51°21.815 2°53.562 14.5043 3.836585 31.122733 -2.458615
2012-05-31 05:33:17 51°21.828 2°53.579 14.5046 3.836585 31.120062 -2.458615
2012-05-31 05:33:22 51°21.839 2°53.598 14.5066 3.836585 31.120062 -2.458615
2012-05-31 05:33:27 51°21.852 2°53.616 14.5085 3.836377 31.114853 -2.458615
2012-05-31 05:33:32 51°21.865 2°53.633 14.5132 3.83617 31.110312 -2.458615
2012-05-31 05:33:37 51°21.878 2°53.65 14.5175 3.836066 31.107375 -2.458615
2012-05-31 05:33:42 51°21.891 2°53.668 14.5188 3.835963 31.103771 -2.458615
2012-05-31 05:33:47 51°21.903 2°53.685 14.524 3.835756 31.099233 -2.458615
2012-05-31 05:33:52 51°21.916 2°53.702 14.5245 3.835756 31.099233 -2.458615
2012-05-31 05:33:57 51°21.929 2°53.719 14.5311 3.835652 31.094964 -2.458615
2012-05-31 05:34:02 51°21.941 2°53.737 14.5337 3.835548 31.091362 -2.458615
2012-05-31 05:34:07 51°21.954 2°53.754 14.5363 3.835341 31.086827 -2.458615
2012-05-31 05:34:12 51°21.966 2°53.771 14.5407 3.835237 31.083226 -2.458615
2012-05-31 05:34:17 51°21.979 2°53.787 14.5415 3.83503 31.078026 -2.458615
2012-05-31 05:34:22 51°21.992 2°53.805 14.5455 3.83503 31.078026 -2.458615
2012-05-31 05:34:27 51°22.005 2°53.822 14.5488 3.83503 31.075362 -2.458615
2012-05-31 05:34:32 51°22.017 2°53.838 14.5539 3.834823 31.070164 -2.458615
2012-05-31 05:34:37 51°22.03 2°53.856 14.5602 3.834823 31.066835 -2.458615
2012-05-31 05:34:42 51°22.043 2°53.872 14.5663 3.834823 31.063507 -2.458615
2012-05-31 05:34:47 51°22.056 2°53.89 14.5704 3.834512 31.057378 -2.458615
2012-05-31 05:34:52 51°22.069 2°53.907 14.5736 3.834512 31.057378 -2.458615
2012-05-31 05:34:57 51°22.082 2°53.924 14.5823 3.834512 31.055382 -2.458615
2012-05-31 05:35:02 51°22.095 2°53.94 14.5881 3.834305 31.050189 -2.458615
2012-05-31 05:35:07 51°22.108 2°53.956 14.5961 3.834201 31.045265 -2.458615
2012-05-31 05:35:12 51°22.122 2°53.971 14.6043 3.834097 31.040344 -2.458615
2012-05-31 05:35:17 51°22.136 2°53.984 14.6112 3.833994 31.035423 -2.458615
2012-05-31 05:35:22 51°22.151 2°53.995 14.6162 3.833994 31.035423 -2.458615
2012-05-31 05:35:27 51°22.166 2°54.007 14.6208 3.833994 31.030773 -2.458615
2012-05-31 05:35:32 51°22.181 2°54.013 14.6274 3.83389 31.025191 -2.458615
2012-05-31 05:35:37 51°22.196 2°54.022 14.6328 3.833683 31.017351 -2.458615
2012-05-31 05:35:42 51°22.212 2°54.026 14.6359 3.833579 31.012437 -2.458615
2012-05-31 05:35:47 51°22.228 2°54.03 14.6396 3.833268 31.003006 -2.458615
2012-05-31 05:35:52 51°22.244 2°54.03 14.6437 3.833268 31.003006 -2.458615
2012-05-31 05:35:57 51°22.261 2°54.033 14.6487 3.833164 30.996108 -2.458615
2012-05-31 05:36:02 51°22.277 2°54.032 14.6503 3.833164 30.990806 -2.458615
2012-05-31 05:36:07 51°22.293 2°54.032 14.6549 3.833371 30.988033 -2.458615
2012-05-31 05:36:12 51°22.31 2°54.032 14.6583 3.833268 30.982466 -2.458615
2012-05-31 05:36:17 51°22.326 2°54.031 14.6633 3.833268 30.97717 -2.458615
2012-05-31 05:36:22 51°22.342 2°54.032 14.6645 3.833268 30.97717 -2.458615
2012-05-31 05:36:27 51°22.358 2°54.031 14.6648 3.833475 30.9744 -2.458615
2012-05-31 05:36:32 51°22.375 2°54.031 14.6675 3.833578 30.971362 -2.458615
2012-05-31 05:36:37 51°22.391 2°54.031 14.6685 3.833578 30.967393 -2.458615
2012-05-31 05:36:42 51°22.408 2°54.03 14.6664 3.833682 30.964357 -2.458615
2012-05-31 05:36:47 51°22.425 2°54.029 14.6703 3.833889 30.962252 -2.458615
2012-05-31 05:36:52 51°22.441 2°54.029 14.6774 3.833889 30.962252 -2.458615
2012-05-31 05:36:57 51°22.457 2°54.027 14.6729 3.834096 30.960809 -2.458615
2012-05-31 05:37:02 51°22.474 2°54.027 14.6721 3.8342 30.959096 -2.458615
2012-05-31 05:37:07 51°22.49 2°54.025 14.6651 3.834614 30.960837 -2.458615
2012-05-31 05:37:12 51°22.507 2°54.025 14.6643 3.834821 30.960717 -2.458615
2012-05-31 05:37:17 51°22.523 2°54.024 14.6625 3.834821 30.959395 -2.458615
2012-05-31 05:37:22 51°22.54 2°54.024 14.6606 3.834821 30.959395 -2.458615
2012-05-31 05:37:27 51°22.556 2°54.024 14.6639 3.835028 30.959274 -2.458615
2012-05-31 05:37:32 51°22.572 2°54.024 14.6645 3.835339 30.960745 -2.458615
2012-05-31 05:37:37 51°22.589 2°54.023 14.6644 3.833474 30.943334 -2.458615
2012-05-31 05:37:43 51°22.608 2°54.021 14.6717 3.833785 30.948107 -2.458615
2012-05-31 05:37:47 51°22.622 2°54.021 14.6727 3.833992 30.951289 -2.458615
2012-05-31 05:37:52 51°22.638 2°54.018 14.6777 3.8342 30.954471 -2.458615
2012-05-31 05:37:58 51°22.658 2°54.018 14.6783 3.8342 30.954471 -2.458615
2012-05-31 05:38:03 51°22.674 2°54.016 14.681 3.8342 30.955132 -2.458615
2012-05-31 05:38:07 51°22.687 2°54.015 14.6852 3.834303 30.956063 -2.458615
2012-05-31 05:38:12 51°22.704 2°54.014 14.6878 3.834096 30.952219 -2.458615
2012-05-31 05:38:17 51°22.72 2°54.012 14.69 3.835857 30.966059 -2.458615
2012-05-31 05:38:22 51°22.737 2°54.012 14.6863 3.835857 30.966059 -2.458615
2012-05-31 05:38:27 51°22.754 2°54.011 14.6839 3.83565 30.962216 -2.458615
2012-05-31 05:38:32 51°22.771 2°54.011 14.6781 3.835443 30.959033 -2.458615
2012-05-31 05:38:37 51°22.787 2°54.01 14.6767 3.835339 30.955461 -2.458615
2012-05-31 05:38:42 51°22.804 2°54.01 14.6858 3.834925 30.949098 -2.458615
2012-05-31 05:38:47 51°22.821 2°54.009 14.6839 3.834821 30.945527 -2.458615
2012-05-31 05:38:52 51°22.837 2°54.01 14.6757 3.834821 30.945527 -2.458615
2012-05-31 05:38:57 51°22.853 2°54.009 14.6663 3.834614 30.942346 -2.458615
2012-05-31 05:39:02 51°22.87 2°54.01 14.6582 3.834821 30.944207 -2.458615
2012-05-31 05:39:07 51°22.886 2°54.01 14.6331 3.834925 30.947117 -2.458615
2012-05-31 05:39:12 51°22.902 2°54.011 14.6276 3.834925 30.948438 -2.458615
2012-05-31 05:39:17 51°22.919 2°54.011 14.61 3.835028 30.948708 -2.458615
2012-05-31 05:39:22 51°22.935 2°54.011 14.6031 3.835028 30.948708 -2.458615
2012-05-31 05:39:27 51°22.951 2°54.011 14.582 3.834821 30.946847 -2.458615
2012-05-31 05:39:32 51°22.968 2°54.011 14.5718 3.834821 30.948828 -2.458615
2012-05-31 05:39:37 51°22.984 2°54.011 14.5623 3.835028 30.957293 -2.458615
2012-05-31 05:39:42 51°23 2°54.013 14.5603 3.83565 30.974774 -2.458615
2012-05-31 05:39:47 51°23.017 2°54.013 14.5537 3.836375 30.990553 -2.458615
2012-05-31 05:39:52 51°23.033 2°54.014 14.5421 3.836375 30.990553 -2.458615
2012-05-31 05:39:57 51°23.05 2°54.014 14.5403 3.836997 31.003424 -2.458615
2012-05-31 05:40:02 51°23.066 2°54.016 14.5279 3.837515 31.02001 -2.458615
2012-05-31 05:40:07 51°23.082 2°54.015 14.5249 3.838137 31.036878 -2.458615
2012-05-31 05:40:12 51°23.098 2°54.014 14.518 3.838552 31.050566 -2.458615
2012-05-31 05:40:17 51°23.115 2°54.015 14.5137 3.838863 31.062665 -2.458615
2012-05-31 05:40:22 51°23.131 2°54.015 14.515 3.838863 31.062665 -2.458615
2012-05-31 05:40:27 51°23.148 2°54.016 14.5045 3.83907 31.073839 -2.458615
2012-05-31 05:40:32 51°23.164 2°54.016 14.5019 3.839277 31.081693 -2.458615
2012-05-31 05:40:37 51°23.18 2°54.015 14.5099 3.839381 31.089282 -2.458615
2012-05-31 05:40:42 51°23.196 2°54.016 14.5056 3.839588 31.099807 -2.458615
2012-05-31 05:40:47 51°23.213 2°54.015 14.5018 3.839588 31.104471 -2.458615
2012-05-31 05:40:52 51°23.229 2°54.015 14.5096 3.839588 31.104471 -2.458615
2012-05-31 05:40:57 51°23.246 2°54.014 14.5044 3.839692 31.110071 -2.458615
2012-05-31 05:41:02 51°23.262 2°54.015 14.5068 3.839588 31.114471 -2.458615
2012-05-31 05:41:07 51°23.278 2°54.014 14.4994 3.839485 31.118205 -2.458615
2012-05-31 05:41:12 51°23.294 2°54.013 14.4998 3.839278 31.11767 -2.458615
2012-05-31 05:41:17 51°23.311 2°54.013 14.5 3.839174 31.11807 -2.458615
2012-05-31 05:41:22 51°23.327 2°54.013 14.5015 3.839174 31.11807 -2.458615
2012-05-31 05:41:27 51°23.343 2°54.012 14.5027 3.839071 31.11847 -2.458615
2012-05-31 05:41:32 51°23.36 2°54.014 14.5009 3.839071 31.119137 -2.458615
2012-05-31 05:41:37 51°23.376 2°54.013 14.5017 3.838967 31.11887 -2.458615
2012-05-31 05:41:42 51°23.392 2°54.012 14.5026 3.838967 31.120871 -2.458615
2012-05-31 05:41:47 51°23.409 2°54.011 14.5047 3.83876 31.120337 -2.458615
2012-05-31 05:41:52 51°23.425 2°54.011 14.5067 3.83876 31.120337 -2.458615
2012-05-31 05:41:57 51°23.442 2°54.011 14.5158 3.838656 31.119402 -2.458615
2012-05-31 05:42:02 51°23.458 2°54.011 14.507 3.838449 31.1182 -2.458615
2012-05-31 05:42:07 51°23.474 2°54.009 14.5086 3.838242 31.116998 -2.458615
2012-05-31 05:42:12 51°23.491 2°54.009 14.5146 3.838138 31.11673 -2.458615
2012-05-31 05:42:17 51°23.507 2°54.007 14.5108 3.837931 31.114193 -2.458615
2012-05-31 05:42:22 51°23.523 2°54.007 14.5113 3.837931 31.114193 -2.458615
2012-05-31 05:42:27 51°23.54 2°54.006 14.5097 3.837931 31.112859 -2.458615
2012-05-31 05:42:32 51°23.556 2°54.005 14.5101 3.837827 31.111257 -2.458615
2012-05-31 05:42:37 51°23.573 2°54.005 14.5074 3.837827 31.109256 -2.458615
2012-05-31 05:42:42 51°23.59 2°54.004 14.5092 3.837724 31.107654 -2.458615
2012-05-31 05:42:47 51°23.606 2°54.002 14.5111 3.83762 31.106053 -2.458615
2012-05-31 05:42:52 51°23.622 2°54.003 14.508 3.83762 31.106053 -2.458615
2012-05-31 05:42:57 51°23.639 2°53.999 14.5059 3.83762 31.106053 -2.458615
2012-05-31 05:43:02 51°23.655 2°54 14.5009 3.838449 31.112862 -2.458615
2012-05-31 05:43:07 51°23.671 2°53.997 14.5012 3.838553 31.115131 -2.458615
2012-05-31 05:43:12 51°23.688 2°53.998 14.4959 3.838449 31.114864 -2.458615
2012-05-31 05:43:17 51°23.704 2°53.996 14.4948 3.838449 31.114197 -2.458615
2012-05-31 05:43:22 51°23.721 2°53.995 14.4891 3.838449 31.114197 -2.458615
2012-05-31 05:43:27 51°23.738 2°53.994 14.4886 3.838449 31.114197 -2.458615
2012-05-31 05:43:32 51°23.754 2°53.994 14.485 3.838553 31.115131 -2.458615
2012-05-31 05:43:37 51°23.771 2°53.993 14.4801 3.838553 31.117133 -2.458615
2012-05-31 05:43:42 51°23.787 2°53.995 14.4775 3.838553 31.119134 -2.458615
2012-05-31 05:43:47 51°23.804 2°53.993 14.4756 3.838656 31.121404 -2.458615
2012-05-31 05:43:52 51°23.82 2°53.995 14.4748 3.838656 31.121404 -2.458615
2012-05-31 05:43:57 51°23.837 2°53.993 14.4767 3.83876 31.125676 -2.458615
2012-05-31 05:44:02 51°23.853 2°53.993 14.47 3.838967 31.130884 -2.458615
2012-05-31 05:44:07 51°23.869 2°53.993 14.4766 3.838967 31.13222 -2.458615
2012-05-31 05:44:12 51°23.886 2°53.993 14.4745 3.839174 31.13743 -2.458615
2012-05-31 05:44:17 51°23.902 2°53.991 14.4698 3.839175 31.139434 -2.458615
2012-05-31 05:44:22 51°23.919 2°53.991 14.4769 3.839175 31.139434 -2.458615
2012-05-31 05:44:27 51°23.935 2°53.992 14.4667 3.839175 31.142107 -2.458615
2012-05-31 05:44:32 51°23.952 2°53.991 14.4629 3.839278 31.144379 -2.458615
2012-05-31 05:44:37 51°23.968 2°53.992 14.4702 3.839175 31.146117 -2.458615
2012-05-31 05:44:42 51°23.985 2°53.991 14.4666 3.839278 31.148389 -2.458615
2012-05-31 05:44:47 51°24.001 2°53.992 14.4632 3.839382 31.149325 -2.458615
2012-05-31 05:44:52 51°24.018 2°53.992 14.4579 3.839382 31.149325 -2.458615
2012-05-31 05:44:57 51°24.034 2°53.992 14.4498 3.839278 31.149058 -2.458615
2012-05-31 05:45:02 51°24.051 2°53.994 14.4527 3.839485 31.152266 -2.458615
2012-05-31 05:45:07 51°24.067 2°53.994 14.4419 3.839485 31.154272 -2.458615
2012-05-31 05:45:12 51°24.084 2°53.992 14.44 3.839589 31.156545 -2.458615
2012-05-31 05:45:17 51°24.1 2°53.993 14.4489 3.839486 31.157616 -2.458615
2012-05-31 05:45:22 51°24.116 2°53.993 14.4409 3.839486 31.157616 -2.458615
2012-05-31 05:45:27 51°24.133 2°53.993 14.4421 3.839486 31.159623 -2.458615
2012-05-31 05:45:32 51°24.15 2°53.992 14.4434 3.839486 31.162299 -2.458615
2012-05-31 05:45:37 51°24.166 2°53.993 14.4422 3.839486 31.165645 -2.458615
2012-05-31 05:45:42 51°24.183 2°53.992 14.444 3.839486 31.168992 -2.458615
2012-05-31 05:45:47 51°24.2 2°53.992 14.4391 3.839589 31.171267 -2.458615
2012-05-31 05:45:52 51°24.216 2°53.992 14.4444 3.839589 31.171267 -2.458615
2012-05-31 05:45:57 51°24.233 2°53.99 14.44 3.839486 31.17167 -2.458615
2012-05-31 05:46:02 51°24.249 2°53.991 14.4476 3.839382 31.172743 -2.458615
2012-05-31 05:46:07 51°24.266 2°53.99 14.4424 3.839175 31.17154 -2.458615
2012-05-31 05:46:12 51°24.282 2°53.99 14.4351 3.839175 31.17221 -2.458615
2012-05-31 05:46:17 51°24.299 2°53.991 14.4357 3.839071 31.171943 -2.458615
2012-05-31 05:46:22 51°24.316 2°53.991 14.4284 3.839071 31.171943 -2.458615
2012-05-31 05:46:27 51°24.332 2°53.991 14.4244 3.838657 31.169538 -2.458615
2012-05-31 05:46:32 51°24.349 2°53.991 14.4226 3.838346 31.166729 -2.458615
2012-05-31 05:46:37 51°24.365 2°53.991 14.4089 3.838139 31.164856 -2.458615
2012-05-31 05:46:42 51°24.382 2°53.991 14.4072 3.838035 31.163251 -2.458615
2012-05-31 05:46:47 51°24.398 2°53.991 14.4084 3.838346 31.168738 -2.458615
2012-05-31 05:46:52 51°24.415 2°53.993 14.4071 3.838346 31.168738 -2.458615
2012-05-31 05:46:57 51°24.431 2°53.991 14.3956 3.83845 31.171683 -2.458615
2012-05-31 05:47:02 51°24.447 2°53.993 14.4001 3.839072 31.180652 -2.458615
2012-05-31 05:47:07 51°24.464 2°53.993 14.3787 3.8399 31.191495 -2.458615
2012-05-31 05:47:12 51°24.48 2°53.994 14.3742 3.840626 31.202075 -2.458615
2012-05-31 05:47:17 51°24.496 2°53.992 14.3816 3.841144 31.211456 -2.458615
2012-05-31 05:47:22 51°24.512 2°53.992 14.3766 3.841144 31.211456 -2.458615
2012-05-31 05:47:27 51°24.528 2°53.992 14.3626 3.841662 31.218154 -2.458615
2012-05-31 05:47:32 51°24.545 2°53.991 14.3559 3.842387 31.228071 -2.458615
2012-05-31 05:47:37 51°24.561 2°53.991 14.3587 3.843319 31.239864 -2.458615
2012-05-31 05:47:42 51°24.577 2°53.989 14.3303 3.843941 31.251538 -2.458615
2012-05-31 05:47:47 51°24.593 2°53.989 14.3371 3.844977 31.267639 -2.458615
2012-05-31 05:47:52 51°24.609 2°53.989 14.3374 3.844977 31.267639 -2.458615
2012-05-31 05:47:57 51°24.625 2°53.989 14.321 3.845599 31.275285 -2.458615
2012-05-31 05:48:02 51°24.642 2°53.989 14.3154 3.846428 31.288848 -2.458615
2012-05-31 05:48:07 51°24.658 2°53.988 14.304 3.847153 31.298783 -2.458615
2012-05-31 05:48:12 51°24.674 2°53.987 14.2893 3.847982 31.31303 -2.458615
2012-05-31 05:48:17 51°24.69 2°53.987 14.2904 3.848604 31.330129 -2.458615
2012-05-31 05:48:22 51°24.706 2°53.985 14.2837 3.848604 31.330129 -2.458615
2012-05-31 05:48:27 51°24.723 2°53.985 14.2792 3.849018 31.337935 -2.458615
2012-05-31 05:48:32 51°24.739 2°53.984 14.2676 3.849329 31.345479 -2.458615
2012-05-31 05:48:37 51°24.755 2°53.984 14.2535 3.849744 31.356669 -2.458615
2012-05-31 05:48:42 51°24.771 2°53.983 14.2435 3.850469 31.371359 -2.458615
2012-05-31 05:48:47 51°24.787 2°53.982 14.2401 3.851091 31.385118 -2.458615
2012-05-31 05:48:52 51°24.804 2°53.983 14.2215 3.851091 31.385118 -2.458615
2012-05-31 05:48:57 51°24.82 2°53.982 14.1992 3.851402 31.395387 -2.458615
2012-05-31 05:49:02 51°24.836 2°53.983 14.1955 3.851609 31.404042 -2.458615
2012-05-31 05:49:07 51°24.852 2°53.981 14.1828 3.85192 31.412965 -2.458615
2012-05-31 05:49:12 51°24.868 2°53.982 14.1782 3.852438 31.427165 -2.458615
2012-05-31 05:49:17 51°24.884 2°53.98 14.1804 3.852956 31.440695 -2.458615
2012-05-31 05:49:22 51°24.9 2°53.981 14.1641 3.852956 31.440695 -2.458615
2012-05-31 05:49:27 51°24.916 2°53.978 14.1517 3.853371 31.451933 -2.458615
2012-05-31 05:49:32 51°24.933 2°53.98 14.1393 3.853889 31.468878 -2.458615
2012-05-31 05:49:37 51°24.948 2°53.976 14.1336 3.854407 31.485158 -2.458615
2012-05-31 05:49:42 51°24.965 2°53.978 14.1389 3.854718 31.496839 -2.458615
2012-05-31 05:49:47 51°24.981 2°53.976 14.1302 3.855133 31.511516 -2.458615
2012-05-31 05:49:52 51°24.997 2°53.976 14.1174 3.855133 31.511516 -2.458615
2012-05-31 05:49:57 51°25.013 2°53.974 14.1286 3.855444 31.521849 -2.458615
2012-05-31 05:50:02 51°25.03 2°53.977 14.1193 3.856169 31.536642 -2.458615
2012-05-31 05:50:07 51°25.046 2°53.974 14.1024 3.856376 31.548777 -2.458615
2012-05-31 05:50:12 51°25.062 2°53.976 14.1012 3.856791 31.559388 -2.458615
2012-05-31 05:50:17 51°25.077 2°53.972 14.0895 3.856894 31.566488 -2.458615
2012-05-31 05:50:22 51°25.094 2°53.973 14.0902 3.856894 31.566488 -2.458615
2012-05-31 05:50:27 51°25.11 2°53.97 14.0928 3.85762 31.579941 -2.458615
2012-05-31 05:50:32 51°25.126 2°53.971 14.0801 3.857827 31.585938 -2.458615
2012-05-31 05:50:37 51°25.142 2°53.971 14.0829 3.857931 31.590307 -2.458615
2012-05-31 05:50:42 51°25.158 2°53.969 14.0802 3.819806 31.249108 -2.458615
2012-05-31 05:50:47 51°25.174 2°53.968 14.0812 3.818045 31.240527 -2.458615
2012-05-31 05:50:52 51°25.19 2°53.967 14.0733 3.818045 31.240527 -2.458615
2012-05-31 05:50:57 51°25.206 2°53.968 14.0724 3.817527 31.24191 -2.458615
2012-05-31 05:51:02 51°25.223 2°53.965 14.0607 3.818978 31.25851 -2.458615
2012-05-31 05:51:07 51°25.239 2°53.966 14.061 3.817527 31.251403 -2.458615
2012-05-31 05:51:12 51°25.255 2°53.964 14.0693 3.818045 31.259514 -2.458615
2012-05-31 05:51:17 51°25.271 2°53.965 14.0612 3.817838 31.260341 -2.458615
2012-05-31 05:51:22 51°25.288 2°53.963 14.0583 3.817838 31.260341 -2.458615
2012-05-31 05:51:27 51°25.304 2°53.965 14.0564 3.817528 31.260223 -2.458615
2012-05-31 05:51:31 51°25.317 2°53.964 14.0669 3.816906 31.257274 -2.458615
2012-05-31 05:51:37 51°25.336 2°53.964 14.0544 3.817424 31.265389 -2.458615
2012-05-31 05:51:42 51°25.352 2°53.967 14.0612 3.816595 31.26123 -2.458615
2012-05-31 05:51:47 51°25.368 2°53.965 14.0627 3.815974 31.257601 -2.458615
2012-05-31 05:51:52 51°25.384 2°53.967 14.0565 3.815974 31.257601 -2.458615
2012-05-31 05:51:57 51°25.4 2°53.964 14.0643 3.81701 31.269082 -2.458615
2012-05-31 05:52:02 51°25.416 2°53.966 14.0634 3.816078 31.263298 -2.458615
2012-05-31 05:52:07 51°25.432 2°53.966 14.0679 3.815352 31.256687 -2.458615
2012-05-31 05:52:12 51°25.448 2°53.964 14.0594 3.816285 31.265867 -2.458615
2012-05-31 05:52:17 51°25.464 2°53.965 14.0649 3.816078 31.265336 -2.458615
2012-05-31 05:52:22 51°25.48 2°53.963 14.0552 3.816078 31.265336 -2.458615
2012-05-31 05:52:27 51°25.496 2°53.96 14.0568 3.816078 31.264657 -2.458615
2012-05-31 05:52:32 51°25.512 2°53.96 14.0576 3.815145 31.256156 -2.458615
2012-05-31 05:52:37 51°25.528 2°53.958 14.0537 3.814938 31.253588 -2.458615
2012-05-31 05:52:42 51°25.544 2°53.955 14.047 3.814524 31.249811 -2.458615
2012-05-31 05:52:47 51°25.56 2°53.953 14.0515 3.814213 31.249014 -2.458615
2012-05-31 05:52:52 51°25.576 2°53.949 14.0523 3.814213 31.249014 -2.458615
2012-05-31 05:52:57 51°25.592 2°53.946 14.0548 3.813591 31.245384 -2.458615
2012-05-31 05:53:02 51°25.608 2°53.943 14.0528 3.813799 31.247952 -2.458615
2012-05-31 05:53:07 51°25.624 2°53.94 14.0541 3.813591 31.246063 -2.458615
2012-05-31 05:53:12 51°25.64 2°53.938 14.054 3.812866 31.240809 -2.458615
2012-05-31 05:53:17 51°25.656 2°53.934 14.044 3.812763 31.241901 -2.458615
2012-05-31 05:53:22 51°25.673 2°53.932 14.0458 3.812763 31.241901 -2.458615
2012-05-31 05:53:27 51°25.688 2°53.928 14.0499 3.81297 31.244469 -2.458615
2012-05-31 05:53:31 51°25.701 2°53.926 14.0445 3.812866 31.244882 -2.458615
2012-05-31 05:53:37 51°25.72 2°53.922 14.0374 3.812659 31.242993 -2.458615
2012-05-31 05:53:42 51°25.737 2°53.92 14.0338 3.812659 31.242993 -2.458615
2012-05-31 05:53:47 51°25.753 2°53.917 14.0314 3.813073 31.247451 -2.458615
2012-05-31 05:53:51 51°25.766 2°53.916 14.0362 3.813073 31.247451 -2.458615
2012-05-31 05:53:57 51°25.785 2°53.911 14.0318 3.812452 31.242462 -2.458615
2012-05-31 05:54:02 51°25.801 2°53.91 14.0288 3.812348 31.242875 -2.458615
2012-05-31 05:54:07 51°25.817 2°53.907 14.0181 3.812556 31.246123 -2.458615
2012-05-31 05:54:12 51°25.834 2°53.905 14.0204 3.813074 31.252885 -2.458615
2012-05-31 05:54:17 51°25.85 2°53.901 14.0187 3.812452 31.249254 -2.458615
2012-05-31 05:54:22 51°25.866 2°53.901 14.0161 3.812452 31.249254 -2.458615
2012-05-31 05:54:27 51°25.882 2°53.898 14.0054 3.814213 31.268037 -2.458615
2012-05-31 05:54:32 51°25.898 2°53.894 14.0012 3.81297 31.258735 -2.458615
2012-05-31 05:54:37 51°25.914 2°53.889 14.0042 3.813592 31.266445 -2.458615
2012-05-31 05:54:42 51°25.93 2°53.886 13.9991 3.813695 31.26943 -2.458615
2012-05-31 05:54:47 51°25.946 2°53.882 13.9976 3.813074 31.268519 -2.458615
2012-05-31 05:54:52 51°25.962 2°53.878 13.9917 3.813074 31.268519 -2.458615
2012-05-31 05:54:57 51°25.978 2°53.876 13.9934 3.813074 31.270559 -2.458615
2012-05-31 05:55:02 51°25.994 2°53.872 13.9857 3.813385 31.278158 -2.458615
2012-05-31 05:55:07 51°26.011 2°53.87 13.9858 3.812556 31.273316 -2.458615
2012-05-31 05:55:12 51°26.027 2°53.867 13.985 3.813385 31.284284 -2.458615
2012-05-31 05:55:17 51°26.043 2°53.864 13.9827 3.811831 31.273501 -2.458615
2012-05-31 05:55:22 51°26.06 2°53.86 13.9784 3.811831 31.273501 -2.458615
2012-05-31 05:55:27 51°26.076 2°53.856 13.9816 3.812556 31.282845 -2.458615
2012-05-31 05:55:32 51°26.092 2°53.853 13.9772 3.812556 31.284888 -2.458615
2012-05-31 05:55:37 51°26.109 2°53.85 13.9742 3.812867 31.289769 -2.458615
2012-05-31 05:55:42 51°26.125 2°53.847 13.9684 3.812349 31.289126 -2.458615
2012-05-31 05:55:47 51°26.141 2°53.844 13.9677 3.812763 31.295636 -2.458615
2012-05-31 05:55:51 51°26.154 2°53.842 13.9674 3.812763 31.295636 -2.458615
2012-05-31 05:55:57 51°26.174 2°53.84 13.9653 3.811313 31.285114 -2.458615
2012-05-31 05:56:02 51°26.191 2°53.836 13.9573 3.812349 31.29594 -2.458615
2012-05-31 05:56:07 51°26.207 2°53.835 13.955 3.811624 31.290679 -2.458615
2012-05-31 05:56:12 51°26.223 2°53.831 13.953 3.812349 31.298667 -2.458615
2012-05-31 05:56:17 51°26.24 2°53.829 13.9566 3.812349 31.302076 -2.458615
2012-05-31 05:56:22 51°26.256 2°53.825 13.9505 3.812349 31.302076 -2.458615
2012-05-31 05:56:27 51°26.272 2°53.821 13.9468 3.81266 31.306961 -2.458615
2012-05-31 05:56:32 51°26.289 2°53.817 13.9523 3.812453 31.307796 -2.458615
2012-05-31 05:56:37 51°26.306 2°53.814 13.9534 3.812349 31.308896 -2.458615
2012-05-31 05:56:42 51°26.322 2°53.81 13.9466 3.812142 31.311096 -2.458615
2012-05-31 05:56:47 51°26.339 2°53.807 13.9466 3.81266 31.319243 -2.458615
2012-05-31 05:56:52 51°26.355 2°53.804 13.9468 3.81266 31.319243 -2.458615
2012-05-31 05:56:57 51°26.372 2°53.802 13.9455 3.811521 31.310873 -2.458615
2012-05-31 05:57:02 51°26.388 2°53.796 13.9498 3.812453 31.320762 -2.458615
2012-05-31 05:57:07 51°26.405 2°53.795 13.9462 3.811521 31.312921 -2.458615
2012-05-31 05:57:12 51°26.421 2°53.789 13.9443 3.81266 31.324022 -2.458615
2012-05-31 05:57:17 51°26.438 2°53.786 13.9403 3.812039 31.319705 -2.458615
2012-05-31 05:57:22 51°26.454 2°53.781 13.9347 3.812039 31.319705 -2.458615
2012-05-31 05:57:27 51°26.471 2°53.778 13.9352 3.811314 31.313757 -2.458615
2012-05-31 05:57:32 51°26.487 2°53.772 13.9331 3.81235 31.323912 -2.458615
2012-05-31 05:57:37 51°26.503 2°53.767 13.9311 3.811728 31.318229 -2.458615
2012-05-31 05:57:42 51°26.52 2°53.762 13.932 3.811521 31.317017 -2.458615
2012-05-31 05:57:47 51°26.536 2°53.757 13.9298 3.811417 31.317435 -2.458615
2012-05-31 05:57:52 51°26.553 2°53.752 13.935 3.811417 31.317435 -2.458615
2012-05-31 05:57:57 51°26.569 2°53.748 13.9274 3.811832 31.323273 -2.458615
2012-05-31 05:58:02 51°26.585 2°53.742 13.9317 3.811728 31.325741 -2.458615
2012-05-31 05:58:07 51°26.602 2°53.737 13.9308 3.812246 31.332528 -2.458615
2012-05-31 05:58:12 51°26.619 2°53.733 13.9246 3.811521 31.327262 -2.458615
2012-05-31 05:58:17 51°26.634 2°53.728 13.9291 3.811728 31.330524 -2.458615
2012-05-31 05:58:22 51°26.651 2°53.722 13.918 3.811728 31.330524 -2.458615
2012-05-31 05:58:27 51°26.667 2°53.716 13.9161 3.810796 31.321996 -2.458615
2012-05-31 05:58:32 51°26.684 2°53.711 13.9143 3.811417 31.328364 -2.458615
2012-05-31 05:58:37 51°26.7 2°53.705 13.91 3.810485 31.320519 -2.458615
2012-05-31 05:58:42 51°26.717 2°53.698 13.9145 3.811625 31.331626 -2.458615
2012-05-31 05:58:47 51°26.733 2°53.694 13.9076 3.81121 31.329886 -2.458615
2012-05-31 05:58:52 51°26.749 2°53.687 13.9144 3.81121 31.329886 -2.458615
2012-05-31 05:58:57 51°26.765 2°53.681 13.9115 3.811107 31.330305 -2.458615
2012-05-31 05:59:02 51°26.782 2°53.675 13.8984 3.81121 31.333304 -2.458615
2012-05-31 05:59:07 51°26.798 2°53.669 13.8932 3.811314 31.33767 -2.458615
2012-05-31 05:59:12 51°26.814 2°53.665 13.8936 3.811107 31.337826 -2.458615
2012-05-31 05:59:17 51°26.831 2°53.659 13.8925 3.81121 31.340141 -2.458615
2012-05-31 05:59:22 51°26.847 2°53.655 13.8875 3.81121 31.340141 -2.458615
2012-05-31 05:59:27 51°26.863 2°53.65 13.8792 3.81121 31.342193 -2.458615
2012-05-31 05:59:32 51°26.88 2°53.646 13.8745 3.811418 31.344773 -2.458615
2012-05-31 05:59:37 51°26.896 2°53.642 13.881 3.811211 31.34493 -2.458615
2012-05-31 05:59:42 51°26.912 2°53.636 13.8825 3.811314 31.351352 -2.458615
2012-05-31 05:59:47 51°26.928 2°53.632 13.8746 3.811521 31.355987 -2.458615
2012-05-31 05:59:52 51°26.944 2°53.627 13.8705 3.811521 31.355987 -2.458615
2012-05-31 05:59:57 51°26.961 2°53.622 13.8674 3.811936 31.36252 -2.458615
2012-05-31 06:00:02 51°26.977 2°53.619 13.8703 3.811314 31.360938 -2.458615
2012-05-31 06:00:07 51°26.993 2°53.612 13.8679 3.812558 31.375747 -2.458615
2012-05-31 06:00:12 51°27.009 2°53.607 13.8717 3.811936 31.372796 -2.458615
2012-05-31 06:00:17 51°27.025 2°53.601 13.8604 3.812868 31.382021 -2.458615
2012-05-31 06:00:22 51°27.041 2°53.596 13.852 3.812868 31.382021 -2.458615
2012-05-31 06:00:27 51°27.057 2°53.59 13.8556 3.813386 31.389508 -2.458615
2012-05-31 06:00:32 51°27.074 2°53.586 13.8553 3.813076 31.390776 -2.458615
2012-05-31 06:00:37 51°27.09 2°53.58 13.8615 3.813283 31.395418 -2.458615
2012-05-31 06:00:42 51°27.106 2°53.576 13.8569 3.813904 31.4018 -2.458615
2012-05-31 06:00:47 51°27.122 2°53.571 13.8557 3.813283 31.397477 -2.458615